Wetterdaten: Sonntag, 02.02.2014
Datum Zeit Temp. Aussen +5cm Feuchte Auss Luftdruck Regen Sonnenschein Regendauer UV Solar Windben
02.02.2014 00:00 4,7 C 2,8 C 88 % 1005,4 hPa 0,0 l/m 0 min 0 min 0,0 UV-I 0 W/m 10,3 km/h (2 Bft)
02.02.2014 00:02 4,7 C 2,8 C 88 % 1005,4 hPa 0,0 l/m 0 min 0 min 0,0 UV-I 0 W/m 18,0 km/h (3 Bft)
02.02.2014 00:04 4,7 C 2,8 C 88 % 1005,4 hPa 0,0 l/m 0 min 0 min 0,0 UV-I 0 W/m 7,7 km/h (2 Bft)
02.02.2014 00:06 4,7 C 2,8 C 88 % 1005,4 hPa 0,0 l/m 0 min 0 min 0,0 UV-I 0 W/m 0,0 km/h (0 Bft)
02.02.2014 00:08 4,7 C 2,8 C 88 % 1005,4 hPa 0,0 l/m 0 min 0 min 0,0 UV-I 0 W/m 12,9 km/h (3 Bft)
02.02.2014 00:10 4,7 C 2,8 C 88 % 1005,4 hPa 0,0 l/m 0 min 0 min 0,0 UV-I 0 W/m 15,4 km/h (3 Bft)
02.02.2014 00:12 4,7 C 2,8 C 88 % 1005,5 hPa 0,0 l/m 0 min 0 min 0,0 UV-I 0 W/m 10,3 km/h (2 Bft)
02.02.2014 00:14 4,7 C 2,8 C 88 % 1005,5 hPa 0,0 l/m 0 min 0 min 0,0 UV-I 0 W/m 10,3 km/h (2 Bft)
02.02.2014 00:16 4,7 C 2,8 C 88 % 1005,5 hPa 0,0 l/m 0 min 0 min 0,0 UV-I 0 W/m 20,6 km/h (4 Bft)
02.02.2014 00:18 4,7 C 2,8 C 88 % 1005,5 hPa 0,0 l/m 0 min 0 min 0,0 UV-I 0 W/m 12,9 km/h (3 Bft)
02.02.2014 00:20 4,7 C 2,8 C 88 % 1005,5 hPa 0,0 l/m 0 min 0 min 0,0 UV-I 0 W/m 10,3 km/h (2 Bft)
02.02.2014 00:22 4,7 C 2,8 C 88 % 1005,5 hPa 0,0 l/m 0 min 0 min 0,0 UV-I 0 W/m 18,0 km/h (3 Bft)
02.02.2014 00:24 4,7 C 2,8 C 88 % 1005,6 hPa 0,0 l/m 0 min 0 min 0,0 UV-I 0 W/m 7,7 km/h (2 Bft)
02.02.2014 00:26 4,7 C 2,8 C 88 % 1005,5 hPa 0,0 l/m 0 min 0 min 0,0 UV-I 0 W/m 5,1 km/h (1 Bft)
02.02.2014 00:28 4,7 C 2,8 C 88 % 1005,5 hPa 0,0 l/m 0 min 0 min 0,0 UV-I 0 W/m 5,1 km/h (1 Bft)
02.02.2014 00:30 4,7 C 2,8 C 88 % 1005,5 hPa 0,0 l/m 0 min 0 min 0,0 UV-I 0 W/m 15,4 km/h (3 Bft)
02.02.2014 00:32 4,7 C 2,8 C 88 % 1005,5 hPa 0,0 l/m 0 min 0 min 0,0 UV-I 0 W/m 12,9 km/h (3 Bft)
02.02.2014 00:34 4,7 C 2,8 C 88 % 1005,5 hPa 0,0 l/m 0 min 0 min 0,0 UV-I 0 W/m 10,3 km/h (2 Bft)
02.02.2014 00:36 4,7 C 2,8 C 88 % 1005,6 hPa 0,0 l/m 0 min 0 min 0,0 UV-I 0 W/m 5,1 km/h (1 Bft)
02.02.2014 00:38 4,7 C 2,8 C 88 % 1005,6 hPa 0,0 l/m 0 min 0 min 0,0 UV-I 0 W/m 10,3 km/h (2 Bft)
02.02.2014 00:40 4,7 C 2,8 C 88 % 1005,6 hPa 0,0 l/m 0 min 0 min 0,0 UV-I 0 W/m 5,1 km/h (1 Bft)
02.02.2014 00:42 4,7 C 2,8 C 88 % 1005,6 hPa 0,0 l/m 0 min 0 min 0,0 UV-I 0 W/m 10,3 km/h (2 Bft)
02.02.2014 00:44 4,7 C 2,8 C 88 % 1005,7 hPa 0,0 l/m 0 min 0 min 0,0 UV-I 0 W/m 10,3 km/h (2 Bft)
02.02.2014 00:46 4,7 C 2,8 C 88 % 1005,6 hPa 0,0 l/m 0 min 0 min 0,0 UV-I 0 W/m 10,3 km/h (2 Bft)
02.02.2014 00:48 4,7 C 2,8 C 88 % 1005,6 hPa 0,0 l/m 0 min 0 min 0,0 UV-I 0 W/m 20,6 km/h (4 Bft)
02.02.2014 00:50 4,7 C 2,8 C 87 % 1005,6 hPa 0,0 l/m 0 min 0 min 0,0 UV-I 0 W/m 15,4 km/h (3 Bft)
02.02.2014 00:52 4,7 C 2,8 C 87 % 1005,6 hPa 0,0 l/m 0 min 0 min 0,0 UV-I 0 W/m 20,6 km/h (4 Bft)
02.02.2014 00:54 4,7 C 2,8 C 87 % 1005,6 hPa 0,0 l/m 0 min 0 min 0,0 UV-I 0 W/m 10,3 km/h (2 Bft)
02.02.2014 00:56 4,7 C 2,8 C 87 % 1005,6 hPa 0,0 l/m 0 min 0 min 0,0 UV-I 0 W/m 10,3 km/h (2 Bft)
02.02.2014 00:58 4,6 C 2,8 C 87 % 1005,7 hPa 0,0 l/m 0 min 0 min 0,0 UV-I 0 W/m 7,7 km/h (2 Bft)
02.02.2014 01:00 4,6 C 2,8 C 88 % 1005,7 hPa 0,0 l/m 0 min 0 min 0,0 UV-I 0 W/m 10,3 km/h (2 Bft)
02.02.2014 01:02 4,6 C 2,8 C 88 % 1005,7 hPa 0,0 l/m 0 min 0 min 0,0 UV-I 0 W/m 7,7 km/h (2 Bft)
02.02.2014 01:04 4,6 C 2,8 C 88 % 1005,8 hPa 0,0 l/m 0 min 0 min 0,0 UV-I 0 W/m 10,3 km/h (2 Bft)
02.02.2014 01:06 4,6 C 2,8 C 87 % 1005,8 hPa 0,0 l/m 0 min 0 min 0,0 UV-I 0 W/m 10,3 km/h (2 Bft)
02.02.2014 01:08 4,6 C 2,8 C 87 % 1005,8 hPa 0,0 l/m 0 min 0 min 0,0 UV-I 0 W/m 5,1 km/h (1 Bft)
02.02.2014 01:10 4,5 C 2,8 C 88 % 1005,8 hPa 0,0 l/m 0 min 0 min 0,0 UV-I 0 W/m 12,9 km/h (3 Bft)
02.02.2014 01:12 4,5 C 2,8 C 88 % 1005,8 hPa 0,0 l/m 0 min 0 min 0,0 UV-I 0 W/m 10,3 km/h (2 Bft)
02.02.2014 01:14 4,5 C 2,8 C 88 % 1005,9 hPa 0,0 l/m 0 min 0 min 0,0 UV-I 0 W/m 7,7 km/h (2 Bft)
02.02.2014 01:16 4,4 C 2,8 C 88 % 1005,8 hPa 0,0 l/m 0 min 0 min 0,0 UV-I 0 W/m 10,3 km/h (2 Bft)
02.02.2014 01:18 4,4 C 2,8 C 88 % 1005,9 hPa 0,0 l/m 0 min 0 min 0,0 UV-I 0 W/m 12,9 km/h (3 Bft)
02.02.2014 01:20 4,4 C 2,8 C 88 % 1005,9 hPa 0,0 l/m 0 min 0 min 0,0 UV-I 0 W/m 12,9 km/h (3 Bft)
02.02.2014 01:22 4,4 C 2,8 C 88 % 1005,9 hPa 0,0 l/m 0 min 0 min 0,0 UV-I 0 W/m 12,9 km/h (3 Bft)
02.02.2014 01:24 4,4 C 2,2 C 88 % 1005,9 hPa 0,0 l/m 0 min 0 min 0,0 UV-I 0 W/m 0,0 km/h (0 Bft)
02.02.2014 01:26 4,3 C 2,2 C 88 % 1005,9 hPa 0,0 l/m 0 min 0 min 0,0 UV-I 0 W/m 0,0 km/h (0 Bft)
02.02.2014 01:28 4,3 C 2,2 C 88 % 1005,9 hPa 0,0 l/m 0 min 0 min 0,0 UV-I 0 W/m 7,7 km/h (2 Bft)
02.02.2014 01:30 4,3 C 2,2 C 88 % 1005,9 hPa 0,0 l/m 0 min 0 min 0,0 UV-I 0 W/m 7,7 km/h (2 Bft)
02.02.2014 01:32 4,3 C 2,2 C 88 % 1005,9 hPa 0,0 l/m 0 min 0 min 0,0 UV-I 0 W/m 5,1 km/h (1 Bft)
02.02.2014 01:34 4,3 C 2,2 C 88 % 1005,9 hPa 0,0 l/m 0 min 0 min 0,0 UV-I 0 W/m 10,3 km/h (2 Bft)
02.02.2014 01:36 4,3 C 2,2 C 88 % 1005,9 hPa 0,0 l/m 0 min 0 min 0,0 UV-I 0 W/m 15,4 km/h (3 Bft)
02.02.2014 01:38 4,3 C 2,2 C 88 % 1005,9 hPa 0,0 l/m 0 min 0 min 0,0 UV-I 0 W/m 12,9 km/h (3 Bft)
02.02.2014 01:40 4,2 C 2,2 C 88 % 1005,9 hPa 0,0 l/m 0 min 0 min 0,0 UV-I 0 W/m 7,7 km/h (2 Bft)
02.02.2014 01:42 4,2 C 2,2 C 88 % 1005,9 hPa 0,0 l/m 0 min 0 min 0,0 UV-I 0 W/m 10,3 km/h (2 Bft)
02.02.2014 01:44 4,2 C 2,2 C 89 % 1005,9 hPa 0,0 l/m 0 min 0 min 0,0 UV-I 0 W/m 0,0 km/h (0 Bft)
02.02.2014 01:46 4,1 C 2,2 C 89 % 1005,9 hPa 0,0 l/m 0 min 0 min 0,0 UV-I 0 W/m 7,7 km/h (2 Bft)
02.02.2014 01:48 4,1 C 2,2 C 89 % 1005,9 hPa 0,0 l/m 0 min 0 min 0,0 UV-I 0 W/m 5,1 km/h (1 Bft)
02.02.2014 01:50 4,1 C 2,2 C 89 % 1005,9 hPa 0,0 l/m 0 min 0 min 0,0 UV-I 0 W/m 10,3 km/h (2 Bft)
02.02.2014 01:52 4,1 C 2,2 C 89 % 1005,9 hPa 0,0 l/m 0 min 0 min 0,0 UV-I 0 W/m 10,3 km/h (2 Bft)
02.02.2014 01:54 4,0 C 1,7 C 89 % 1005,9 hPa 0,0 l/m 0 min 0 min 0,0 UV-I 0 W/m 12,9 km/h (3 Bft)
02.02.2014 01:56 4,0 C 1,7 C 89 % 1005,9 hPa 0,0 l/m 0 min 0 min 0,0 UV-I 0 W/m 7,7 km/h (2 Bft)
02.02.2014 01:58 3,9 C 1,7 C 89 % 1005,9 hPa 0,0 l/m 0 min 0 min 0,0 UV-I 0 W/m 7,7 km/h (2 Bft)
02.02.2014 02:00 3,9 C 1,7 C 89 % 1005,9 hPa 0,0 l/m 0 min 0 min 0,0 UV-I 0 W/m 10,3 km/h (2 Bft)
02.02.2014 02:02 3,9 C 1,7 C 89 % 1006,0 hPa 0,0 l/m 0 min 0 min 0,0 UV-I 0 W/m 7,7 km/h (2 Bft)
02.02.2014 02:04 3,9 C 1,7 C 89 % 1006,0 hPa 0,0 l/m 0 min 0 min 0,0 UV-I 0 W/m 0,0 km/h (0 Bft)
02.02.2014 02:06 3,9 C 1,7 C 89 % 1006,0 hPa 0,0 l/m 0 min 0 min 0,0 UV-I 0 W/m 7,7 km/h (2 Bft)
02.02.2014 02:08 3,8 C 1,7 C 89 % 1006,1 hPa 0,0 l/m 0 min 0 min 0,0 UV-I 0 W/m 7,7 km/h (2 Bft)
02.02.2014 02:10 3,8 C 1,7 C 89 % 1006,0 hPa 0,0 l/m 0 min 0 min 0,0 UV-I 0 W/m 0,0 km/h (0 Bft)
02.02.2014 02:12 3,8 C 1,7 C 89 % 1006,0 hPa 0,0 l/m 0 min 0 min 0,0 UV-I 0 W/m 5,1 km/h (1 Bft)
02.02.2014 02:14 3,7 C 1,7 C 89 % 1006,0 hPa 0,0 l/m 0 min 0 min 0,0 UV-I 0 W/m 2,6 km/h (1 Bft)
02.02.2014 02:16 3,7 C 1,7 C 90 % 1006,0 hPa 0,0 l/m 0 min 0 min 0,0 UV-I 0 W/m 2,6 km/h (1 Bft)
02.02.2014 02:18 3,7 C 1,7 C 90 % 1006,0 hPa 0,0 l/m 0 min 0 min 0,0 UV-I 0 W/m 7,7 km/h (2 Bft)
02.02.2014 02:20 3,7 C 1,7 C 90 % 1006,0 hPa 0,0 l/m 0 min 0 min 0,0 UV-I 0 W/m 10,3 km/h (2 Bft)
02.02.2014 02:22 3,7 C 1,7 C 90 % 1006,1 hPa 0,0 l/m 0 min 0 min 0,0 UV-I 0 W/m 0,0 km/h (0 Bft)
02.02.2014 02:24 3,7 C 1,7 C 90 % 1006,2 hPa 0,0 l/m 0 min 0 min 0,0 UV-I 0 W/m 0,0 km/h (0 Bft)
02.02.2014 02:26 3,7 C 1,7 C 90 % 1006,1 hPa 0,0 l/m 0 min 0 min 0,0 UV-I 0 W/m 0,0 km/h (0 Bft)
02.02.2014 02:28 3,6 C 1,7 C 90 % 1006,1 hPa 0,0 l/m 0 min 0 min 0,0 UV-I 0 W/m 2,6 km/h (1 Bft)
02.02.2014 02:30 3,6 C 1,7 C 90 % 1006,0 hPa 0,0 l/m 0 min 0 min 0,0 UV-I 0 W/m 0,0 km/h (0 Bft)
02.02.2014 02:32 3,6 C 1,7 C 90 % 1006,1 hPa 0,0 l/m 0 min 0 min 0,0 UV-I 0 W/m 0,0 km/h (0 Bft)
02.02.2014 02:34 3,6 C 1,7 C 90 % 1006,1 hPa 0,0 l/m 0 min 0 min 0,0 UV-I 0 W/m 10,3 km/h (2 Bft)
02.02.2014 02:36 3,6 C 1,7 C 90 % 1006,1 hPa 0,0 l/m 0 min 0 min 0,0 UV-I 0 W/m 2,6 km/h (1 Bft)
02.02.2014 02:38 3,7 C 1,7 C 90 % 1006,1 hPa 0,0 l/m 0 min 0 min 0,0 UV-I 0 W/m 5,1 km/h (1 Bft)
02.02.2014 02:40 3,7 C 1,7 C 90 % 1006,2 hPa 0,0 l/m 0 min 0 min 0,0 UV-I 0 W/m 5,1 km/h (1 Bft)
02.02.2014 02:42 3,7 C 1,7 C 90 % 1006,2 hPa 0,0 l/m 0 min 0 min 0,0 UV-I 0 W/m 5,1 km/h (1 Bft)
02.02.2014 02:44 3,7 C 1,7 C 90 % 1006,3 hPa 0,0 l/m 0 min 0 min 0,0 UV-I 0 W/m 7,7 km/h (2 Bft)
02.02.2014 02:46 3,7 C 1,7 C 90 % 1006,3 hPa 0,0 l/m 0 min 0 min 0,0 UV-I 0 W/m 7,7 km/h (2 Bft)
02.02.2014 02:48 3,7 C 1,7 C 90 % 1006,3 hPa 0,0 l/m 0 min 0 min 0,0 UV-I 0 W/m 18,0 km/h (3 Bft)
02.02.2014 02:50 3,8 C 1,7 C 90 % 1006,3 hPa 0,0 l/m 0 min 0 min 0,0 UV-I 0 W/m 7,7 km/h (2 Bft)
02.02.2014 02:52 3,8 C 1,7 C 90 % 1006,3 hPa 0,0 l/m 0 min 0 min 0,0 UV-I 0 W/m 12,9 km/h (3 Bft)
02.02.2014 02:54 3,8 C 1,7 C 90 % 1006,4 hPa 0,0 l/m 0 min 0 min 0,0 UV-I 0 W/m 10,3 km/h (2 Bft)
02.02.2014 02:56 3,8 C 1,7 C 90 % 1006,4 hPa 0,0 l/m 0 min 0 min 0,0 UV-I 0 W/m 5,1 km/h (1 Bft)
02.02.2014 02:58 3,8 C 1,7 C 90 % 1006,4 hPa 0,0 l/m 0 min 0 min 0,0 UV-I 0 W/m 5,1 km/h (1 Bft)
02.02.2014 03:00 3,8 C 1,7 C 90 % 1006,4 hPa 0,0 l/m 0 min 0 min 0,0 UV-I 0 W/m 7,7 km/h (2 Bft)
02.02.2014 03:02 3,8 C 1,7 C 90 % 1006,5 hPa 0,0 l/m 0 min 0 min 0,0 UV-I 0 W/m 0,0 km/h (0 Bft)
02.02.2014 03:04 3,7 C 1,7 C 90 % 1006,6 hPa 0,0 l/m 0 min 0 min 0,0 UV-I 0 W/m 0,0 km/h (0 Bft)
02.02.2014 03:06 3,7 C 1,7 C 90 % 1006,5 hPa 0,0 l/m 0 min 0 min 0,0 UV-I 0 W/m 7,7 km/h (2 Bft)
02.02.2014 03:08 3,8 C 1,7 C 90 % 1006,5 hPa 0,0 l/m 0 min 0 min 0,0 UV-I 0 W/m 12,9 km/h (3 Bft)
02.02.2014 03:10 3,8 C 1,7 C 90 % 1006,5 hPa 0,0 l/m 0 min 0 min 0,0 UV-I 0 W/m 15,4 km/h (3 Bft)
02.02.2014 03:12 3,8 C 1,7 C 90 % 1006,6 hPa 0,0 l/m 0 min 0 min 0,0 UV-I 0 W/m 0,0 km/h (0 Bft)
02.02.2014 03:14 3,8 C 1,7 C 90 % 1006,6 hPa 0,0 l/m 0 min 0 min 0,0 UV-I 0 W/m 0,0 km/h (0 Bft)
02.02.2014 03:16 3,8 C 1,7 C 89 % 1006,6 hPa 0,0 l/m 0 min 0 min 0,0 UV-I 0 W/m 0,0 km/h (0 Bft)
02.02.2014 03:18 3,8 C 1,7 C 89 % 1006,6 hPa 0,0 l/m 0 min 0 min 0,0 UV-I 0 W/m 5,1 km/h (1 Bft)
02.02.2014 03:20 3,8 C 1,7 C 90 % 1006,6 hPa 0,0 l/m 0 min 0 min 0,0 UV-I 0 W/m 5,1 km/h (1 Bft)
02.02.2014 03:22 3,8 C 1,7 C 89 % 1006,7 hPa 0,0 l/m 0 min 0 min 0,0 UV-I 0 W/m 0,0 km/h (0 Bft)
02.02.2014 03:24 3,8 C 1,7 C 89 % 1006,7 hPa 0,0 l/m 0 min 0 min 0,0 UV-I 0 W/m 2,6 km/h (1 Bft)
02.02.2014 03:26 3,8 C 1,7 C 89 % 1006,6 hPa 0,0 l/m 0 min 0 min 0,0 UV-I 0 W/m 0,0 km/h (0 Bft)
02.02.2014 03:28 3,8 C 1,7 C 90 % 1006,7 hPa 0,0 l/m 0 min 0 min 0,0 UV-I 0 W/m 0,0 km/h (0 Bft)
02.02.2014 03:30 3,8 C 1,7 C 89 % 1006,6 hPa 0,0 l/m 0 min 0 min 0,0 UV-I 0 W/m 2,6 km/h (1 Bft)
02.02.2014 03:32 3,8 C 1,7 C 89 % 1006,6 hPa 0,0 l/m 0 min 0 min 0,0 UV-I 0 W/m 10,3 km/h (2 Bft)
02.02.2014 03:34 3,8 C 1,7 C 90 % 1006,7 hPa 0,0 l/m 0 min 0 min 0,0 UV-I 0 W/m 0,0 km/h (0 Bft)
02.02.2014 03:36 3,8 C 1,7 C 89 % 1006,7 hPa 0,0 l/m 0 min 0 min 0,0 UV-I 0 W/m 7,7 km/h (2 Bft)
02.02.2014 03:38 3,8 C 1,7 C 89 % 1006,7 hPa 0,0 l/m 0 min 0 min 0,0 UV-I 0 W/m 2,6 km/h (1 Bft)
02.02.2014 03:40 3,8 C 1,7 C 89 % 1006,7 hPa 0,0 l/m 0 min 0 min 0,0 UV-I 0 W/m 2,6 km/h (1 Bft)
02.02.2014 03:42 3,7 C 1,7 C 89 % 1006,6 hPa 0,0 l/m 0 min 0 min 0,0 UV-I 0 W/m 0,0 km/h (0 Bft)
02.02.2014 03:44 3,7 C 1,7 C 89 % 1006,6 hPa 0,0 l/m 0 min 0 min 0,0 UV-I 0 W/m 2,6 km/h (1 Bft)
02.02.2014 03:46 3,7 C 1,7 C 90 % 1006,6 hPa 0,0 l/m 0 min 0 min 0,0 UV-I 0 W/m 0,0 km/h (0 Bft)
02.02.2014 03:48 3,7 C 1,7 C 90 % 1006,6 hPa 0,0 l/m 0 min 0 min 0,0 UV-I 0 W/m 7,7 km/h (2 Bft)
02.02.2014 03:50 3,7 C 1,7 C 90 % 1006,6 hPa 0,0 l/m 0 min 0 min 0,0 UV-I 0 W/m 5,1 km/h (1 Bft)
02.02.2014 03:52 3,8 C 1,7 C 90 % 1006,6 hPa 0,0 l/m 0 min 0 min 0,0 UV-I 0 W/m 0,0 km/h (0 Bft)
02.02.2014 03:54 3,8 C 1,7 C 90 % 1006,7 hPa 0,0 l/m 0 min 0 min 0,0 UV-I 0 W/m 0,0 km/h (0 Bft)
02.02.2014 03:56 3,8 C 1,7 C 90 % 1006,7 hPa 0,0 l/m 0 min 0 min 0,0 UV-I 0 W/m 7,7 km/h (2 Bft)
02.02.2014 03:58 3,9 C 2,2 C 90 % 1006,7 hPa 0,0 l/m 0 min 0 min 0,0 UV-I 0 W/m 10,3 km/h (2 Bft)
02.02.2014 04:00 3,9 C 2,2 C 89 % 1006,7 hPa 0,0 l/m 0 min 0 min 0,0 UV-I 0 W/m 2,6 km/h (1 Bft)
02.02.2014 04:02 3,9 C 2,2 C 89 % 1006,7 hPa 0,0 l/m 0 min 0 min 0,0 UV-I 0 W/m 5,1 km/h (1 Bft)
02.02.2014 04:04 3,9 C 1,7 C 89 % 1006,7 hPa 0,0 l/m 0 min 0 min 0,0 UV-I 0 W/m 7,7 km/h (2 Bft)
02.02.2014 04:06 4,0 C 1,7 C 89 % 1006,7 hPa 0,0 l/m 0 min 0 min 0,0 UV-I 0 W/m 2,6 km/h (1 Bft)
02.02.2014 04:08 3,9 C 1,7 C 89 % 1006,7 hPa 0,0 l/m 0 min 0 min 0,0 UV-I 0 W/m 10,3 km/h (2 Bft)
02.02.2014 04:10 3,9 C 1,7 C 89 % 1006,6 hPa 0,0 l/m 0 min 0 min 0,0 UV-I 0 W/m 0,0 km/h (0 Bft)
02.02.2014 04:12 3,9 C 1,7 C 89 % 1006,7 hPa 0,0 l/m 0 min 0 min 0,0 UV-I 0 W/m 5,1 km/h (1 Bft)
02.02.2014 04:14 4,0 C 1,7 C 89 % 1006,7 hPa 0,0 l/m 0 min 0 min 0,0 UV-I 0 W/m 0,0 km/h (0 Bft)
02.02.2014 04:16 4,0 C 1,7 C 89 % 1006,7 hPa 0,0 l/m 0 min 0 min 0,0 UV-I 0 W/m 10,3 km/h (2 Bft)
02.02.2014 04:18 4,1 C 1,7 C 89 % 1006,7 hPa 0,0 l/m 0 min 0 min 0,0 UV-I 0 W/m 5,1 km/h (1 Bft)
02.02.2014 04:20 4,1 C 2,2 C 89 % 1006,7 hPa 0,0 l/m 0 min 0 min 0,0 UV-I 0 W/m 10,3 km/h (2 Bft)
02.02.2014 04:22 4,1 C 2,2 C 89 % 1006,8 hPa 0,0 l/m 0 min 0 min 0,0 UV-I 0 W/m 5,1 km/h (1 Bft)
02.02.2014 04:24 4,1 C 2,2 C 89 % 1006,8 hPa 0,0 l/m 0 min 0 min 0,0 UV-I 0 W/m 5,1 km/h (1 Bft)
02.02.2014 04:26 4,1 C 2,2 C 89 % 1006,8 hPa 0,0 l/m 0 min 0 min 0,0 UV-I 0 W/m 15,4 km/h (3 Bft)
02.02.2014 04:28 4,1 C 1,7 C 89 % 1006,9 hPa 0,0 l/m 0 min 0 min 0,0 UV-I 0 W/m 2,6 km/h (1 Bft)
02.02.2014 04:30 4,1 C 1,7 C 89 % 1006,9 hPa 0,0 l/m 0 min 0 min 0,0 UV-I 0 W/m 0,0 km/h (0 Bft)
02.02.2014 04:32 4,1 C 1,7 C 89 % 1006,9 hPa 0,0 l/m 0 min 0 min 0,0 UV-I 0 W/m 0,0 km/h (0 Bft)
02.02.2014 04:34 4,0 C 1,7 C 89 % 1006,8 hPa 0,0 l/m 0 min 0 min 0,0 UV-I 0 W/m 5,1 km/h (1 Bft)
02.02.2014 04:36 4,0 C 1,7 C 89 % 1006,9 hPa 0,0 l/m 0 min 0 min 0,0 UV-I 0 W/m 7,7 km/h (2 Bft)
02.02.2014 04:38 4,0 C 1,7 C 89 % 1006,8 hPa 0,0 l/m 0 min 0 min 0,0 UV-I 0 W/m 12,9 km/h (3 Bft)
02.02.2014 04:40 3,9 C 1,7 C 89 % 1006,8 hPa 0,0 l/m 0 min 0 min 0,0 UV-I 0 W/m 0,0 km/h (0 Bft)
02.02.2014 04:42 3,9 C 1,7 C 89 % 1006,8 hPa 0,0 l/m 0 min 0 min 0,0 UV-I 0 W/m 7,7 km/h (2 Bft)
02.02.2014 04:44 3,9 C 1,7 C 89 % 1006,8 hPa 0,0 l/m 0 min 0 min 0,0 UV-I 0 W/m 7,7 km/h (2 Bft)
02.02.2014 04:46 3,9 C 1,7 C 89 % 1006,9 hPa 0,0 l/m 0 min 0 min 0,0 UV-I 0 W/m 7,7 km/h (2 Bft)
02.02.2014 04:48 4,0 C 1,7 C 89 % 1006,9 hPa 0,0 l/m 0 min 0 min 0,0 UV-I 0 W/m 15,4 km/h (3 Bft)
02.02.2014 04:50 4,1 C 1,7 C 89 % 1006,8 hPa 0,0 l/m 0 min 0 min 0,0 UV-I 0 W/m 7,7 km/h (2 Bft)
02.02.2014 04:52 4,0 C 1,7 C 89 % 1006,9 hPa 0,0 l/m 0 min 0 min 0,0 UV-I 0 W/m 5,1 km/h (1 Bft)
02.02.2014 04:54 4,0 C 1,7 C 89 % 1006,9 hPa 0,0 l/m 0 min 0 min 0,0 UV-I 0 W/m 0,0 km/h (0 Bft)
02.02.2014 04:56 4,0 C 1,7 C 89 % 1006,9 hPa 0,0 l/m 0 min 0 min 0,0 UV-I 0 W/m 15,4 km/h (3 Bft)
02.02.2014 04:58 4,0 C 1,7 C 89 % 1006,9 hPa 0,0 l/m 0 min 0 min 0,0 UV-I 0 W/m 10,3 km/h (2 Bft)
02.02.2014 05:00 4,1 C 2,2 C 89 % 1006,9 hPa 0,0 l/m 0 min 0 min 0,0 UV-I 0 W/m 10,3 km/h (2 Bft)
02.02.2014 05:02 4,1 C 1,7 C 89 % 1007,0 hPa 0,0 l/m 0 min 0 min 0,0 UV-I 0 W/m 0,0 km/h (0 Bft)
02.02.2014 05:04 4,1 C 1,7 C 89 % 1007,0 hPa 0,0 l/m 0 min 0 min 0,0 UV-I 0 W/m 5,1 km/h (1 Bft)
02.02.2014 05:06 4,0 C 1,7 C 89 % 1006,9 hPa 0,0 l/m 0 min 0 min 0,0 UV-I 0 W/m 5,1 km/h (1 Bft)
02.02.2014 05:08 4,0 C 1,7 C 89 % 1006,9 hPa 0,0 l/m 0 min 0 min 0,0 UV-I 0 W/m 7,7 km/h (2 Bft)
02.02.2014 05:10 3,9 C 1,7 C 89 % 1007,0 hPa 0,0 l/m 0 min 0 min 0,0 UV-I 0 W/m 0,0 km/h (0 Bft)
02.02.2014 05:12 3,9 C 1,7 C 89 % 1006,9 hPa 0,0 l/m 0 min 0 min 0,0 UV-I 0 W/m 7,7 km/h (2 Bft)
02.02.2014 05:14 3,8 C 1,7 C 89 % 1007,0 hPa 0,0 l/m 0 min 0 min 0,0 UV-I 0 W/m 0,0 km/h (0 Bft)
02.02.2014 05:16 3,8 C 1,7 C 89 % 1006,9 hPa 0,0 l/m 0 min 0 min 0,0 UV-I 0 W/m 0,0 km/h (0 Bft)
02.02.2014 05:18 3,8 C 1,1 C 89 % 1007,0 hPa 0,0 l/m 0 min 0 min 0,0 UV-I 0 W/m 2,6 km/h (1 Bft)
02.02.2014 05:20 3,8 C 1,1 C 89 % 1007,0 hPa 0,0 l/m 0 min 0 min 0,0 UV-I 0 W/m 0,0 km/h (0 Bft)
02.02.2014 05:22 3,8 C 1,1 C 89 % 1007,0 hPa 0,0 l/m 0 min 0 min 0,0 UV-I 0 W/m 0,0 km/h (0 Bft)
02.02.2014 05:24 3,7 C 1,1 C 90 % 1007,0 hPa 0,0 l/m 0 min 0 min 0,0 UV-I 0 W/m 0,0 km/h (0 Bft)
02.02.2014 05:26 3,7 C 1,1 C 90 % 1007,0 hPa 0,0 l/m 0 min 0 min 0,0 UV-I 0 W/m 0,0 km/h (0 Bft)
02.02.2014 05:28 3,7 C 1,1 C 90 % 1007,0 hPa 0,0 l/m 0 min 0 min 0,0 UV-I 0 W/m 0,0 km/h (0 Bft)
02.02.2014 05:30 3,7 C 1,1 C 90 % 1007,0 hPa 0,0 l/m 0 min 0 min 0,0 UV-I 0 W/m 0,0 km/h (0 Bft)
02.02.2014 05:32 3,6 C 1,1 C 90 % 1007,1 hPa 0,0 l/m 0 min 0 min 0,0 UV-I 0 W/m 0,0 km/h (0 Bft)
02.02.2014 05:34 3,6 C 1,1 C 90 % 1007,2 hPa 0,0 l/m 0 min 0 min 0,0 UV-I 0 W/m 5,1 km/h (1 Bft)
02.02.2014 05:36 3,6 C 1,1 C 90 % 1007,1 hPa 0,0 l/m 0 min 0 min 0,0 UV-I 0 W/m 0,0 km/h (0 Bft)
02.02.2014 05:38 3,5 C 1,1 C 90 % 1007,3 hPa 0,0 l/m 0 min 0 min 0,0 UV-I 0 W/m 2,6 km/h (1 Bft)
02.02.2014 05:40 3,5 C 1,1 C 90 % 1007,3 hPa 0,0 l/m 0 min 0 min 0,0 UV-I 0 W/m 5,1 km/h (1 Bft)
02.02.2014 05:42 3,4 C 0,6 C 90 % 1007,3 hPa 0,0 l/m 0 min 0 min 0,0 UV-I 0 W/m 7,7 km/h (2 Bft)
02.02.2014 05:44 3,4 C 0,6 C 90 % 1007,3 hPa 0,0 l/m 0 min 0 min 0,0 UV-I 0 W/m 5,1 km/h (1 Bft)
02.02.2014 05:46 3,3 C 0,6 C 90 % 1007,3 hPa 0,0 l/m 0 min 0 min 0,0 UV-I 0 W/m 0,0 km/h (0 Bft)
02.02.2014 05:48 3,3 C 0,6 C 90 % 1007,4 hPa 0,0 l/m 0 min 0 min 0,0 UV-I 0 W/m 0,0 km/h (0 Bft)
02.02.2014 05:50 3,3 C 0,6 C 90 % 1007,3 hPa 0,0 l/m 0 min 0 min 0,0 UV-I 0 W/m 0,0 km/h (0 Bft)
02.02.2014 05:52 3,2 C 0,6 C 91 % 1007,3 hPa 0,0 l/m 0 min 0 min 0,0 UV-I 0 W/m 7,7 km/h (2 Bft)
02.02.2014 05:54 3,2 C 0,6 C 91 % 1007,3 hPa 0,0 l/m 0 min 0 min 0,0 UV-I 0 W/m 0,0 km/h (0 Bft)
02.02.2014 05:56 3,2 C 0,6 C 91 % 1007,3 hPa 0,0 l/m 0 min 0 min 0,0 UV-I 0 W/m 0,0 km/h (0 Bft)
02.02.2014 05:58 3,2 C 0,6 C 91 % 1007,3 hPa 0,0 l/m 0 min 0 min 0,0 UV-I 0 W/m 7,7 km/h (2 Bft)
02.02.2014 06:00 3,1 C 0,6 C 91 % 1007,3 hPa 0,0 l/m 0 min 0 min 0,0 UV-I 0 W/m 0,0 km/h (0 Bft)
02.02.2014 06:02 3,1 C 0,6 C 91 % 1007,3 hPa 0,0 l/m 0 min 0 min 0,0 UV-I 0 W/m 0,0 km/h (0 Bft)
02.02.2014 06:04 3,0 C 0,6 C 91 % 1007,3 hPa 0,0 l/m 0 min 0 min 0,0 UV-I 0 W/m 0,0 km/h (0 Bft)
02.02.2014 06:06 2,9 C 0,6 C 91 % 1007,3 hPa 0,0 l/m 0 min 0 min 0,0 UV-I 0 W/m 0,0 km/h (0 Bft)
02.02.2014 06:08 2,9 C 0,6 C 91 % 1007,4 hPa 0,0 l/m 0 min 0 min 0,0 UV-I 0 W/m 5,1 km/h (1 Bft)
02.02.2014 06:10 2,9 C 0,6 C 91 % 1007,3 hPa 0,0 l/m 0 min 0 min 0,0 UV-I 0 W/m 7,7 km/h (2 Bft)
02.02.2014 06:12 2,9 C 0,6 C 91 % 1007,3 hPa 0,0 l/m 0 min 0 min 0,0 UV-I 0 W/m 5,1 km/h (1 Bft)
02.02.2014 06:14 2,9 C 0,6 C 91 % 1007,4 hPa 0,0 l/m 0 min 0 min 0,0 UV-I 0 W/m 7,7 km/h (2 Bft)
02.02.2014 06:16 2,9 C 0,6 C 91 % 1007,3 hPa 0,0 l/m 0 min 0 min 0,0 UV-I 0 W/m 7,7 km/h (2 Bft)
02.02.2014 06:18 2,9 C 0,6 C 91 % 1007,4 hPa 0,0 l/m 0 min 0 min 0,0 UV-I 0 W/m 0,0 km/h (0 Bft)
02.02.2014 06:20 2,8 C 0,6 C 91 % 1007,4 hPa 0,0 l/m 0 min 0 min 0,0 UV-I 0 W/m 5,1 km/h (1 Bft)
02.02.2014 06:22 2,8 C 0,6 C 91 % 1007,5 hPa 0,0 l/m 0 min 0 min 0,0 UV-I 0 W/m 0,0 km/h (0 Bft)
02.02.2014 06:24 2,8 C 0,6 C 91 % 1007,5 hPa 0,0 l/m 0 min 0 min 0,0 UV-I 0 W/m 5,1 km/h (1 Bft)
02.02.2014 06:26 2,7 C 0,6 C 91 % 1007,6 hPa 0,0 l/m 0 min 0 min 0,0 UV-I 0 W/m 0,0 km/h (0 Bft)
02.02.2014 06:28 2,7 C 0,6 C 91 % 1007,6 hPa 0,0 l/m 0 min 0 min 0,0 UV-I 0 W/m 7,7 km/h (2 Bft)
02.02.2014 06:30 2,6 C 0,6 C 91 % 1007,7 hPa 0,0 l/m 0 min 0 min 0,0 UV-I 0 W/m 2,6 km/h (1 Bft)
02.02.2014 06:32 2,6 C 0,6 C 91 % 1007,6 hPa 0,0 l/m 0 min 0 min 0,0 UV-I 0 W/m 0,0 km/h (0 Bft)
02.02.2014 06:34 2,6 C 0,6 C 91 % 1007,7 hPa 0,0 l/m 0 min 0 min 0,0 UV-I 0 W/m 5,1 km/h (1 Bft)
02.02.2014 06:36 2,6 C 0,6 C 92 % 1007,8 hPa 0,0 l/m 0 min 0 min 0,0 UV-I 0 W/m 2,6 km/h (1 Bft)
02.02.2014 06:38 2,6 C 0,6 C 92 % 1007,8 hPa 0,0 l/m 0 min 0 min 0,0 UV-I 0 W/m 7,7 km/h (2 Bft)
02.02.2014 06:40 2,5 C 0,6 C 92 % 1007,8 hPa 0,0 l/m 0 min 0 min 0,0 UV-I 0 W/m 5,1 km/h (1 Bft)
02.02.2014 06:42 2,5 C 0,6 C 92 % 1007,9 hPa 0,0 l/m 0 min 0 min 0,0 UV-I 0 W/m 0,0 km/h (0 Bft)
02.02.2014 06:44 2,5 C 0,6 C 92 % 1007,9 hPa 0,0 l/m 0 min 0 min 0,0 UV-I 0 W/m 0,0 km/h (0 Bft)
02.02.2014 06:46 2,5 C 0,6 C 92 % 1007,9 hPa 0,0 l/m 0 min 0 min 0,0 UV-I 0 W/m 7,7 km/h (2 Bft)
02.02.2014 06:48 2,4 C 0,6 C 92 % 1008,0 hPa 0,0 l/m 0 min 0 min 0,0 UV-I 0 W/m 2,6 km/h (1 Bft)
02.02.2014 06:50 2,4 C 0,6 C 92 % 1008,0 hPa 0,0 l/m 0 min 0 min 0,0 UV-I 0 W/m 10,3 km/h (2 Bft)
02.02.2014 06:52 2,5 C 0,6 C 92 % 1008,0 hPa 0,0 l/m 0 min 0 min 0,0 UV-I 0 W/m 0,0 km/h (0 Bft)
02.02.2014 06:54 2,6 C 0,6 C 92 % 1008,0 hPa 0,0 l/m 0 min 0 min 0,0 UV-I 0 W/m 0,0 km/h (0 Bft)
02.02.2014 06:56 2,5 C 0,6 C 92 % 1008,0 hPa 0,0 l/m 0 min 0 min 0,0 UV-I 0 W/m 0,0 km/h (0 Bft)
02.02.2014 06:58 2,5 C 0,6 C 92 % 1008,0 hPa 0,0 l/m 0 min 0 min 0,0 UV-I 0 W/m 2,6 km/h (1 Bft)
02.02.2014 07:00 2,5 C 0,6 C 92 % 1008,0 hPa 0,0 l/m 0 min 0 min 0,0 UV-I 0 W/m 7,7 km/h (2 Bft)
02.02.2014 07:02 2,5 C 0,6 C 92 % 1008,1 hPa 0,0 l/m 0 min 0 min 0,0 UV-I 0 W/m 2,6 km/h (1 Bft)
02.02.2014 07:04 2,5 C 0,6 C 92 % 1008,0 hPa 0,0 l/m 0 min 0 min 0,0 UV-I 0 W/m 0,0 km/h (0 Bft)
02.02.2014 07:06 2,5 C 0,6 C 92 % 1008,0 hPa 0,0 l/m 0 min 0 min 0,0 UV-I 0 W/m 2,6 km/h (1 Bft)
02.02.2014 07:08 2,5 C 0,6 C 92 % 1008,0 hPa 0,0 l/m 0 min 0 min 0,0 UV-I 0 W/m 5,1 km/h (1 Bft)
02.02.2014 07:10 2,5 C 0,6 C 92 % 1008,0 hPa 0,0 l/m 0 min 0 min 0,0 UV-I 0 W/m 2,6 km/h (1 Bft)
02.02.2014 07:12 2,6 C 0,6 C 92 % 1008,0 hPa 0,0 l/m 0 min 0 min 0,0 UV-I 0 W/m 0,0 km/h (0 Bft)
02.02.2014 07:14 2,6 C 0,6 C 92 % 1008,0 hPa 0,0 l/m 0 min 0 min 0,0 UV-I 0 W/m 0,0 km/h (0 Bft)
02.02.2014 07:16 2,6 C 0,6 C 92 % 1008,0 hPa 0,0 l/m 0 min 0 min 0,0 UV-I 0 W/m 0,0 km/h (0 Bft)
02.02.2014 07:18 2,6 C 0,0 C 92 % 1008,1 hPa 0,0 l/m 0 min 0 min 0,0 UV-I 0 W/m 0,0 km/h (0 Bft)
02.02.2014 07:20 2,6 C 0,0 C 92 % 1008,1 hPa 0,0 l/m 0 min 0 min 0,0 UV-I 0 W/m 0,0 km/h (0 Bft)
02.02.2014 07:22 2,6 C 0,0 C 92 % 1008,2 hPa 0,0 l/m 0 min 0 min 0,0 UV-I 0 W/m 0,0 km/h (0 Bft)
02.02.2014 07:24 2,6 C 0,0 C 92 % 1008,3 hPa 0,0 l/m 0 min 0 min 0,0 UV-I 0 W/m 0,0 km/h (0 Bft)
02.02.2014 07:26 2,6 C 0,0 C 92 % 1008,2 hPa 0,0 l/m 0 min 0 min 0,0 UV-I 0 W/m 0,0 km/h (0 Bft)
02.02.2014 07:28 2,6 C 0,0 C 92 % 1008,3 hPa 0,0 l/m 0 min 0 min 0,0 UV-I 0 W/m 2,6 km/h (1 Bft)
02.02.2014 07:30 2,6 C 0,0 C 92 % 1008,4 hPa 0,0 l/m 0 min 0 min 0,0 UV-I 0 W/m 0,0 km/h (0 Bft)
02.02.2014 07:32 2,6 C 0,0 C 92 % 1008,4 hPa 0,0 l/m 0 min 0 min 0,0 UV-I 0 W/m 0,0 km/h (0 Bft)
02.02.2014 07:34 2,6 C 0,0 C 92 % 1008,5 hPa 0,0 l/m 0 min 0 min 0,0 UV-I 0 W/m 0,0 km/h (0 Bft)
02.02.2014 07:36 2,5 C 0,0 C 92 % 1008,5 hPa 0,0 l/m 0 min 0 min 0,0 UV-I 0 W/m 0,0 km/h (0 Bft)
02.02.2014 07:38 2,5 C 0,0 C 92 % 1008,5 hPa 0,0 l/m 0 min 0 min 0,0 UV-I 0 W/m 2,6 km/h (1 Bft)
02.02.2014 07:40 2,6 C 0,0 C 92 % 1008,6 hPa 0,0 l/m 0 min 0 min 0,0 UV-I 0 W/m 0,0 km/h (0 Bft)
02.02.2014 07:42 2,5 C 0,0 C 92 % 1008,6 hPa 0,0 l/m 0 min 0 min 0,0 UV-I 0 W/m 5,1 km/h (1 Bft)
02.02.2014 07:44 2,5 C 0,0 C 92 % 1008,6 hPa 0,0 l/m 0 min 0 min 0,0 UV-I 0 W/m 7,7 km/h (2 Bft)
02.02.2014 07:46 2,6 C 0,0 C 92 % 1008,6 hPa 0,0 l/m 0 min 0 min 0,0 UV-I 0 W/m 0,0 km/h (0 Bft)
02.02.2014 07:48 2,6 C 0,0 C 92 % 1008,6 hPa 0,0 l/m 0 min 0 min 0,0 UV-I 0 W/m 0,0 km/h (0 Bft)
02.02.2014 07:50 2,5 C 0,0 C 92 % 1008,7 hPa 0,0 l/m 0 min 0 min 0,0 UV-I 0 W/m 0,0 km/h (0 Bft)
02.02.2014 07:52 2,5 C 0,0 C 92 % 1008,7 hPa 0,0 l/m 0 min 0 min 0,0 UV-I 0 W/m 0,0 km/h (0 Bft)
02.02.2014 07:54 2,4 C 0,0 C 91 % 1008,7 hPa 0,0 l/m 0 min 0 min 0,0 UV-I 0 W/m 0,0 km/h (0 Bft)
02.02.2014 07:56 2,4 C 0,0 C 91 % 1008,7 hPa 0,0 l/m 0 min 0 min 0,0 UV-I 0 W/m 0,0 km/h (0 Bft)
02.02.2014 07:58 2,3 C 0,0 C 91 % 1008,7 hPa 0,0 l/m 0 min 0 min 0,0 UV-I 0 W/m 0,0 km/h (0 Bft)
02.02.2014 08:00 2,2 C -0,6 C 91 % 1008,8 hPa 0,0 l/m 0 min 0 min 0,0 UV-I 0 W/m 0,0 km/h (0 Bft)
02.02.2014 08:02 2,2 C -0,6 C 91 % 1008,8 hPa 0,0 l/m 0 min 0 min 0,0 UV-I 0 W/m 0,0 km/h (0 Bft)
02.02.2014 08:04 2,1 C -0,6 C 91 % 1008,8 hPa 0,0 l/m 0 min 0 min 0,0 UV-I 0 W/m 0,0 km/h (0 Bft)
02.02.2014 08:06 2,1 C -0,6 C 91 % 1008,9 hPa 0,0 l/m 0 min 0 min 0,0 UV-I 0 W/m 0,0 km/h (0 Bft)
02.02.2014 08:08 2,0 C -0,6 C 91 % 1008,9 hPa 0,0 l/m 0 min 0 min 0,0 UV-I 0 W/m 0,0 km/h (0 Bft)
02.02.2014 08:10 1,9 C -0,6 C 91 % 1008,9 hPa 0,0 l/m 0 min 0 min 0,0 UV-I 0 W/m 0,0 km/h (0 Bft)
02.02.2014 08:12 1,8 C -0,6 C 91 % 1009,0 hPa 0,0 l/m 0 min 0 min 0,0 UV-I 5 W/m 0,0 km/h (0 Bft)
02.02.2014 08:14 1,8 C -0,6 C 91 % 1009,0 hPa 0,0 l/m 0 min 0 min 0,0 UV-I 5 W/m 0,0 km/h (0 Bft)
02.02.2014 08:16 1,7 C -0,6 C 92 % 1009,1 hPa 0,0 l/m 0 min 0 min 0,0 UV-I 5 W/m 0,0 km/h (0 Bft)
02.02.2014 08:18 1,7 C -0,6 C 92 % 1009,0 hPa 0,0 l/m 0 min 0 min 0,0 UV-I 7 W/m 0,0 km/h (0 Bft)
02.02.2014 08:20 1,6 C -0,6 C 92 % 1009,1 hPa 0,0 l/m 0 min 0 min 0,0 UV-I 7 W/m 0,0 km/h (0 Bft)
02.02.2014 08:22 1,6 C -0,6 C 92 % 1009,2 hPa 0,0 l/m 0 min 0 min 0,0 UV-I 7 W/m 0,0 km/h (0 Bft)
02.02.2014 08:24 1,6 C -0,6 C 92 % 1009,2 hPa 0,0 l/m 0 min 0 min 0,0 UV-I 9 W/m 0,0 km/h (0 Bft)
02.02.2014 08:26 1,6 C -0,6 C 92 % 1009,3 hPa 0,0 l/m 0 min 0 min 0,0 UV-I 9 W/m 0,0 km/h (0 Bft)
02.02.2014 08:28 1,6 C -0,6 C 92 % 1009,3 hPa 0,0 l/m 0 min 0 min 0,0 UV-I 9 W/m 0,0 km/h (0 Bft)
02.02.2014 08:30 1,6 C -0,6 C 92 % 1009,4 hPa 0,0 l/m 0 min 0 min 0,0 UV-I 11 W/m 0,0 km/h (0 Bft)
02.02.2014 08:32 1,5 C -0,6 C 92 % 1009,4 hPa 0,0 l/m 0 min 0 min 0,0 UV-I 11 W/m 0,0 km/h (0 Bft)
02.02.2014 08:34 1,4 C -0,6 C 92 % 1009,4 hPa 0,0 l/m 0 min 0 min 0,0 UV-I 12 W/m 0,0 km/h (0 Bft)
02.02.2014 08:36 1,4 C -0,6 C 92 % 1009,5 hPa 0,0 l/m 0 min 0 min 0,0 UV-I 12 W/m 7,7 km/h (2 Bft)
02.02.2014 08:38 1,3 C -0,6 C 92 % 1009,5 hPa 0,0 l/m 0 min 0 min 0,0 UV-I 16 W/m 2,6 km/h (1 Bft)
02.02.2014 08:40 1,3 C -0,6 C 92 % 1009,5 hPa 0,0 l/m 0 min 0 min 0,0 UV-I 16 W/m 0,0 km/h (0 Bft)
02.02.2014 08:42 1,3 C -0,6 C 93 % 1009,5 hPa 0,0 l/m 0 min 0 min 0,0 UV-I 18 W/m 0,0 km/h (0 Bft)
02.02.2014 08:44 1,3 C -0,6 C 93 % 1009,5 hPa 0,0 l/m 0 min 0 min 0,0 UV-I 21 W/m 0,0 km/h (0 Bft)
02.02.2014 08:46 1,3 C -0,6 C 93 % 1009,5 hPa 0,0 l/m 0 min 0 min 0,0 UV-I 23 W/m 0,0 km/h (0 Bft)
02.02.2014 08:48 1,3 C -0,6 C 93 % 1009,5 hPa 0,0 l/m 0 min 0 min 0,0 UV-I 25 W/m 0,0 km/h (0 Bft)
02.02.2014 08:50 1,3 C -0,6 C 93 % 1009,6 hPa 0,0 l/m 0 min 0 min 0,0 UV-I 25 W/m 0,0 km/h (0 Bft)
02.02.2014 08:52 1,3 C -0,6 C 93 % 1009,6 hPa 0,0 l/m 0 min 0 min 0,0 UV-I 26 W/m 0,0 km/h (0 Bft)
02.02.2014 08:54 1,3 C -0,6 C 93 % 1009,7 hPa 0,0 l/m 0 min 0 min 0,0 UV-I 28 W/m 0,0 km/h (0 Bft)
02.02.2014 08:56 1,3 C -0,6 C 93 % 1009,7 hPa 0,0 l/m 0 min 0 min 0,0 UV-I 28 W/m 0,0 km/h (0 Bft)
02.02.2014 08:58 1,3 C -0,6 C 93 % 1009,7 hPa 0,0 l/m 0 min 0 min 0,0 UV-I 30 W/m 0,0 km/h (0 Bft)
02.02.2014 09:00 1,3 C -0,6 C 93 % 1009,6 hPa 0,0 l/m 0 min 0 min 0,0 UV-I 30 W/m 0,0 km/h (0 Bft)
02.02.2014 09:02 1,4 C -0,6 C 93 % 1009,6 hPa 0,0 l/m 0 min 0 min 0,0 UV-I 30 W/m 0,0 km/h (0 Bft)
02.02.2014 09:04 1,3 C -0,6 C 93 % 1009,7 hPa 0,0 l/m 0 min 0 min 0,0 UV-I 32 W/m 0,0 km/h (0 Bft)
02.02.2014 09:06 1,4 C -0,6 C 93 % 1009,7 hPa 0,0 l/m 0 min 0 min 0,0 UV-I 32 W/m 0,0 km/h (0 Bft)
02.02.2014 09:08 1,4 C -0,6 C 93 % 1009,8 hPa 0,0 l/m 0 min 0 min 0,0 UV-I 33 W/m 2,6 km/h (1 Bft)
02.02.2014 09:10 1,4 C -0,6 C 94 % 1009,8 hPa 0,0 l/m 0 min 0 min 0,0 UV-I 33 W/m 0,0 km/h (0 Bft)
02.02.2014 09:12 1,5 C 0,0 C 93 % 1009,8 hPa 0,0 l/m 0 min 0 min 0,0 UV-I 33 W/m 0,0 km/h (0 Bft)
02.02.2014 09:14 1,6 C 0,0 C 94 % 1009,9 hPa 0,0 l/m 0 min 0 min 0,0 UV-I 35 W/m 0,0 km/h (0 Bft)
02.02.2014 09:16 1,6 C 0,0 C 94 % 1009,9 hPa 0,0 l/m 0 min 0 min 0,0 UV-I 35 W/m 0,0 km/h (0 Bft)
02.02.2014 09:18 1,7 C 0,0 C 94 % 1009,9 hPa 0,0 l/m 0 min 0 min 0,0 UV-I 37 W/m 5,1 km/h (1 Bft)
02.02.2014 09:20 1,7 C 0,0 C 94 % 1009,9 hPa 0,0 l/m 0 min 0 min 0,0 UV-I 37 W/m 2,6 km/h (1 Bft)
02.02.2014 09:22 1,8 C 0,0 C 93 % 1010,0 hPa 0,0 l/m 0 min 0 min 0,0 UV-I 39 W/m 5,1 km/h (1 Bft)
02.02.2014 09:24 1,8 C 0,0 C 94 % 1010,0 hPa 0,0 l/m 0 min 0 min 0,0 UV-I 39 W/m 2,6 km/h (1 Bft)
02.02.2014 09:26 1,9 C 0,0 C 94 % 1010,0 hPa 0,0 l/m 0 min 0 min 0,0 UV-I 40 W/m 0,0 km/h (0 Bft)
02.02.2014 09:28 1,9 C 0,6 C 93 % 1010,0 hPa 0,0 l/m 0 min 0 min 0,0 UV-I 63 W/m 10,3 km/h (2 Bft)
02.02.2014 09:30 2,0 C 0,6 C 93 % 1010,0 hPa 0,0 l/m 0 min 0 min 0,0 UV-I 88 W/m 5,1 km/h (1 Bft)
02.02.2014 09:32 2,1 C 0,6 C 93 % 1010,0 hPa 0,0 l/m 2 min 0 min 0,0 UV-I 98 W/m 7,7 km/h (2 Bft)
02.02.2014 09:34 2,2 C 0,6 C 93 % 1010,1 hPa 0,0 l/m 2 min 0 min 0,0 UV-I 102 W/m 12,9 km/h (3 Bft)
02.02.2014 09:36 2,3 C 0,6 C 93 % 1010,1 hPa 0,0 l/m 2 min 0 min 0,0 UV-I 104 W/m 7,7 km/h (2 Bft)
02.02.2014 09:38 2,3 C 0,6 C 93 % 1010,1 hPa 0,0 l/m 2 min 0 min 0,0 UV-I 109 W/m 5,1 km/h (1 Bft)
02.02.2014 09:40 2,4 C 0,6 C 93 % 1010,1 hPa 0,0 l/m 2 min 0 min 0,0 UV-I 113 W/m 0,0 km/h (0 Bft)
02.02.2014 09:42 2,5 C 0,6 C 93 % 1010,1 hPa 0,0 l/m 2 min 0 min 0,0 UV-I 114 W/m 0,0 km/h (0 Bft)
02.02.2014 09:44 2,6 C 0,6 C 92 % 1010,1 hPa 0,0 l/m 2 min 0 min 0,0 UV-I 120 W/m 0,0 km/h (0 Bft)
02.02.2014 09:46 2,7 C 1,1 C 92 % 1010,1 hPa 0,0 l/m 2 min 0 min 0,0 UV-I 123 W/m 0,0 km/h (0 Bft)
02.02.2014 09:48 2,7 C 1,1 C 92 % 1010,1 hPa 0,0 l/m 2 min 0 min 0,0 UV-I 125 W/m 2,6 km/h (1 Bft)
02.02.2014 09:50 2,8 C 1,1 C 92 % 1010,1 hPa 0,0 l/m 2 min 0 min 0,0 UV-I 130 W/m 0,0 km/h (0 Bft)
02.02.2014 09:52 2,9 C 1,1 C 91 % 1010,2 hPa 0,0 l/m 2 min 0 min 0,0 UV-I 134 W/m 12,9 km/h (3 Bft)
02.02.2014 09:54 3,0 C 1,1 C 91 % 1010,2 hPa 0,0 l/m 2 min 0 min 0,0 UV-I 135 W/m 5,1 km/h (1 Bft)
02.02.2014 09:56 3,1 C 1,1 C 91 % 1010,2 hPa 0,0 l/m 2 min 0 min 0,0 UV-I 141 W/m 2,6 km/h (1 Bft)
02.02.2014 09:58 3,3 C 1,1 C 91 % 1010,3 hPa 0,0 l/m 2 min 0 min 0,0 UV-I 144 W/m 2,6 km/h (1 Bft)
02.02.2014 10:00 3,3 C 1,1 C 90 % 1010,3 hPa 0,0 l/m 2 min 0 min 0,0 UV-I 148 W/m 7,7 km/h (2 Bft)
02.02.2014 10:02 3,4 C 1,7 C 90 % 1010,4 hPa 0,0 l/m 2 min 0 min 0,0 UV-I 153 W/m 5,1 km/h (1 Bft)
02.02.2014 10:04 3,6 C 1,7 C 89 % 1010,4 hPa 0,0 l/m 2 min 0 min 0,0 UV-I 155 W/m 2,6 km/h (1 Bft)
02.02.2014 10:06 3,6 C 1,7 C 89 % 1010,4 hPa 0,0 l/m 2 min 0 min 0,0 UV-I 162 W/m 10,3 km/h (2 Bft)
02.02.2014 10:08 3,7 C 1,7 C 89 % 1010,4 hPa 0,0 l/m 2 min 0 min 0,0 UV-I 165 W/m 5,1 km/h (1 Bft)
02.02.2014 10:10 3,8 C 1,7 C 89 % 1010,4 hPa 0,0 l/m 2 min 0 min 0,0 UV-I 169 W/m 10,3 km/h (2 Bft)
02.02.2014 10:12 3,9 C 1,7 C 88 % 1010,5 hPa 0,0 l/m 2 min 0 min 0,0 UV-I 174 W/m 5,1 km/h (1 Bft)
02.02.2014 10:14 4,0 C 1,7 C 88 % 1010,4 hPa 0,0 l/m 2 min 0 min 0,0 UV-I 178 W/m 5,1 km/h (1 Bft)
02.02.2014 10:16 4,2 C 1,7 C 87 % 1010,4 hPa 0,0 l/m 2 min 0 min 0,0 UV-I 181 W/m 7,7 km/h (2 Bft)
02.02.2014 10:18 4,3 C 2,2 C 87 % 1010,5 hPa 0,0 l/m 2 min 0 min 0,0 UV-I 186 W/m 7,7 km/h (2 Bft)
02.02.2014 10:20 4,4 C 2,2 C 87 % 1010,5 hPa 0,0 l/m 2 min 0 min 0,0 UV-I 188 W/m 5,1 km/h (1 Bft)
02.02.2014 10:22 4,6 C 2,2 C 86 % 1010,6 hPa 0,0 l/m 2 min 0 min 0,0 UV-I 192 W/m 7,7 km/h (2 Bft)
02.02.2014 10:24 4,7 C 2,2 C 86 % 1010,7 hPa 0,0 l/m 2 min 0 min 0,0 UV-I 197 W/m 0,0 km/h (0 Bft)
02.02.2014 10:26 4,9 C 2,8 C 85 % 1010,6 hPa 0,0 l/m 2 min 0 min 0,0 UV-I 200 W/m 0,0 km/h (0 Bft)
02.02.2014 10:28 5,0 C 2,8 C 85 % 1010,6 hPa 0,0 l/m 2 min 0 min 0,0 UV-I 204 W/m 5,1 km/h (1 Bft)
02.02.2014 10:30 5,1 C 2,8 C 84 % 1010,6 hPa 0,0 l/m 2 min 0 min 0,0 UV-I 209 W/m 2,6 km/h (1 Bft)
02.02.2014 10:32 5,2 C 2,8 C 84 % 1010,6 hPa 0,0 l/m 2 min 0 min 0,0 UV-I 213 W/m 0,0 km/h (0 Bft)
02.02.2014 10:34 5,4 C 2,8 C 83 % 1010,6 hPa 0,0 l/m 2 min 0 min 0,0 UV-I 216 W/m 0,0 km/h (0 Bft)
02.02.2014 10:36 5,5 C 3,3 C 83 % 1010,7 hPa 0,0 l/m 2 min 0 min 0,0 UV-I 220 W/m 7,7 km/h (2 Bft)
02.02.2014 10:38 5,7 C 3,3 C 82 % 1010,6 hPa 0,0 l/m 2 min 0 min 0,0 UV-I 223 W/m 15,4 km/h (3 Bft)
02.02.2014 10:40 5,7 C 3,3 C 81 % 1010,6 hPa 0,0 l/m 2 min 0 min 0,0 UV-I 227 W/m 7,7 km/h (2 Bft)
02.02.2014 10:42 5,9 C 3,9 C 81 % 1010,7 hPa 0,0 l/m 2 min 0 min 0,0 UV-I 232 W/m 12,9 km/h (3 Bft)
02.02.2014 10:44 5,9 C 3,9 C 80 % 1010,7 hPa 0,0 l/m 2 min 0 min 0,0 UV-I 236 W/m 10,3 km/h (2 Bft)
02.02.2014 10:46 5,9 C 3,9 C 79 % 1010,7 hPa 0,0 l/m 2 min 0 min 0,0 UV-I 237 W/m 18,0 km/h (3 Bft)
02.02.2014 10:48 6,1 C 3,9 C 79 % 1010,7 hPa 0,0 l/m 2 min 0 min 0,0 UV-I 239 W/m 10,3 km/h (2 Bft)
02.02.2014 10:50 6,1 C 3,9 C 79 % 1010,8 hPa 0,0 l/m 2 min 0 min 0,0 UV-I 243 W/m 18,0 km/h (3 Bft)
02.02.2014 10:52 6,2 C 3,9 C 79 % 1010,7 hPa 0,0 l/m 2 min 0 min 0,0 UV-I 244 W/m 10,3 km/h (2 Bft)
02.02.2014 10:54 6,2 C 3,9 C 78 % 1010,7 hPa 0,0 l/m 2 min 0 min 0,0 UV-I 246 W/m 0,0 km/h (0 Bft)
02.02.2014 10:56 6,3 C 3,9 C 79 % 1010,8 hPa 0,0 l/m 2 min 0 min 0,0 UV-I 251 W/m 12,9 km/h (3 Bft)
02.02.2014 10:58 6,4 C 3,9 C 78 % 1010,8 hPa 0,0 l/m 2 min 0 min 0,0 UV-I 253 W/m 7,7 km/h (2 Bft)
02.02.2014 11:00 6,5 C 4,4 C 78 % 1010,8 hPa 0,0 l/m 2 min 0 min 0,0 UV-I 257 W/m 10,3 km/h (2 Bft)
02.02.2014 11:02 6,5 C 3,9 C 77 % 1010,8 hPa 0,0 l/m 2 min 0 min 0,0 UV-I 260 W/m 12,9 km/h (3 Bft)
02.02.2014 11:04 6,6 C 3,9 C 78 % 1010,9 hPa 0,0 l/m 2 min 0 min 0,0 UV-I 264 W/m 23,2 km/h (4 Bft)
02.02.2014 11:06 6,6 C 4,4 C 78 % 1010,9 hPa 0,0 l/m 2 min 0 min 0,0 UV-I 265 W/m 10,3 km/h (2 Bft)
02.02.2014 11:08 6,7 C 4,4 C 77 % 1011,0 hPa 0,0 l/m 2 min 0 min 0,0 UV-I 269 W/m 0,0 km/h (0 Bft)
02.02.2014 11:10 6,8 C 4,4 C 77 % 1011,0 hPa 0,0 l/m 2 min 0 min 0,0 UV-I 271 W/m 12,9 km/h (3 Bft)
02.02.2014 11:12 6,8 C 4,4 C 77 % 1011,0 hPa 0,0 l/m 2 min 0 min 0,0 UV-I 274 W/m 18,0 km/h (3 Bft)
02.02.2014 11:14 6,8 C 4,4 C 76 % 1011,0 hPa 0,0 l/m 2 min 0 min 0,0 UV-I 274 W/m 10,3 km/h (2 Bft)
02.02.2014 11:16 6,8 C 4,4 C 77 % 1011,1 hPa 0,0 l/m 2 min 0 min 0,0 UV-I 276 W/m 10,3 km/h (2 Bft)
02.02.2014 11:18 6,9 C 4,4 C 77 % 1011,2 hPa 0,0 l/m 2 min 0 min 0,0 UV-I 279 W/m 7,7 km/h (2 Bft)
02.02.2014 11:20 6,9 C 4,4 C 77 % 1011,1 hPa 0,0 l/m 2 min 0 min 0,0 UV-I 283 W/m 10,3 km/h (2 Bft)
02.02.2014 11:22 6,9 C 4,4 C 76 % 1011,1 hPa 0,0 l/m 2 min 0 min 0,0 UV-I 283 W/m 15,4 km/h (3 Bft)
02.02.2014 11:24 7,0 C 5,0 C 76 % 1011,1 hPa 0,0 l/m 2 min 0 min 0,0 UV-I 287 W/m 7,7 km/h (2 Bft)
02.02.2014 11:26 7,0 C 5,0 C 77 % 1011,1 hPa 0,0 l/m 2 min 0 min 0,0 UV-I 288 W/m 0,0 km/h (0 Bft)
02.02.2014 11:28 7,1 C 5,0 C 77 % 1011,1 hPa 0,0 l/m 2 min 0 min 0,0 UV-I 290 W/m 12,9 km/h (3 Bft)
02.02.2014 11:30 7,2 C 5,0 C 77 % 1011,2 hPa 0,0 l/m 2 min 0 min 0,0 UV-I 292 W/m 10,3 km/h (2 Bft)
02.02.2014 11:32 7,3 C 5,0 C 76 % 1011,1 hPa 0,0 l/m 2 min 0 min 0,0 UV-I 294 W/m 10,3 km/h (2 Bft)
02.02.2014 11:34 7,3 C 5,0 C 76 % 1011,3 hPa 0,0 l/m 2 min 0 min 0,0 UV-I 295 W/m 12,9 km/h (3 Bft)
02.02.2014 11:36 7,3 C 5,0 C 76 % 1011,2 hPa 0,0 l/m 2 min 0 min 0,0 UV-I 299 W/m 12,9 km/h (3 Bft)
02.02.2014 11:38 7,4 C 5,0 C 76 % 1011,2 hPa 0,0 l/m 2 min 0 min 0,0 UV-I 299 W/m 12,9 km/h (3 Bft)
02.02.2014 11:40 7,5 C 5,0 C 76 % 1011,3 hPa 0,0 l/m 2 min 0 min 0,0 UV-I 301 W/m 12,9 km/h (3 Bft)
02.02.2014 11:42 7,7 C 5,6 C 76 % 1011,4 hPa 0,0 l/m 2 min 0 min 0,0 UV-I 302 W/m 10,3 km/h (2 Bft)
02.02.2014 11:44 7,7 C 5,6 C 76 % 1011,4 hPa 0,0 l/m 2 min 0 min 0,0 UV-I 302 W/m 7,7 km/h (2 Bft)
02.02.2014 11:46 7,8 C 5,6 C 76 % 1011,5 hPa 0,0 l/m 2 min 0 min 0,0 UV-I 308 W/m 20,6 km/h (4 Bft)
02.02.2014 11:48 7,8 C 5,6 C 75 % 1011,5 hPa 0,0 l/m 2 min 0 min 0,0 UV-I 304 W/m 10,3 km/h (2 Bft)
02.02.2014 11:50 7,8 C 5,6 C 75 % 1011,4 hPa 0,0 l/m 2 min 0 min 0,0 UV-I 308 W/m 23,2 km/h (4 Bft)
02.02.2014 11:52 7,8 C 5,6 C 75 % 1011,5 hPa 0,0 l/m 2 min 0 min 0,0 UV-I 309 W/m 18,0 km/h (3 Bft)
02.02.2014 11:54 7,8 C 5,6 C 75 % 1011,6 hPa 0,0 l/m 2 min 0 min 0,0 UV-I 309 W/m 7,7 km/h (2 Bft)
02.02.2014 11:56 7,9 C 5,6 C 75 % 1011,6 hPa 0,0 l/m 2 min 0 min 0,0 UV-I 311 W/m 7,7 km/h (2 Bft)
02.02.2014 11:58 7,9 C 5,6 C 74 % 1011,6 hPa 0,0 l/m 2 min 0 min 0,0 UV-I 313 W/m 10,3 km/h (2 Bft)
02.02.2014 12:00 8,0 C 5,6 C 75 % 1011,6 hPa 0,0 l/m 2 min 0 min 0,0 UV-I 315 W/m 7,7 km/h (2 Bft)
02.02.2014 12:02 8,1 C 5,6 C 76 % 1011,6 hPa 0,0 l/m 2 min 0 min 0,0 UV-I 316 W/m 5,1 km/h (1 Bft)
02.02.2014 12:04 8,2 C 6,1 C 75 % 1011,7 hPa 0,0 l/m 2 min 0 min 0,0 UV-I 320 W/m 10,3 km/h (2 Bft)
02.02.2014 12:06 8,2 C 6,1 C 75 % 1011,8 hPa 0,0 l/m 2 min 0 min 0,0 UV-I 318 W/m 15,4 km/h (3 Bft)
02.02.2014 12:08 8,2 C 6,1 C 75 % 1011,8 hPa 0,0 l/m 2 min 0 min 0,0 UV-I 323 W/m 7,7 km/h (2 Bft)
02.02.2014 12:10 8,3 C 6,1 C 75 % 1011,8 hPa 0,0 l/m 2 min 0 min 0,0 UV-I 322 W/m 10,3 km/h (2 Bft)
02.02.2014 12:12 8,4 C 6,1 C 74 % 1011,8 hPa 0,0 l/m 2 min 0 min 0,0 UV-I 322 W/m 10,3 km/h (2 Bft)
02.02.2014 12:14 8,4 C 6,1 C 73 % 1011,7 hPa 0,0 l/m 2 min 0 min 0,0 UV-I 323 W/m 15,4 km/h (3 Bft)
02.02.2014 12:16 8,4 C 6,1 C 74 % 1011,8 hPa 0,0 l/m 2 min 0 min 0,0 UV-I 325 W/m 10,3 km/h (2 Bft)
02.02.2014 12:18 8,5 C 6,1 C 73 % 1011,8 hPa 0,0 l/m 2 min 0 min 0,0 UV-I 320 W/m 23,2 km/h (4 Bft)
02.02.2014 12:20 8,5 C 6,1 C 73 % 1011,8 hPa 0,0 l/m 2 min 0 min 0,0 UV-I 323 W/m 15,4 km/h (3 Bft)
02.02.2014 12:22 8,6 C 6,1 C 73 % 1011,9 hPa 0,0 l/m 2 min 0 min 0,0 UV-I 323 W/m 7,7 km/h (2 Bft)
02.02.2014 12:24 8,6 C 6,7 C 73 % 1011,8 hPa 0,0 l/m 2 min 0 min 0,0 UV-I 329 W/m 18,0 km/h (3 Bft)
02.02.2014 12:26 8,7 C 6,7 C 73 % 1011,9 hPa 0,0 l/m 2 min 0 min 0,0 UV-I 329 W/m 12,9 km/h (3 Bft)
02.02.2014 12:28 8,8 C 6,7 C 73 % 1011,9 hPa 0,0 l/m 2 min 0 min 0,0 UV-I 325 W/m 10,3 km/h (2 Bft)
02.02.2014 12:30 8,9 C 6,7 C 73 % 1011,8 hPa 0,0 l/m 2 min 0 min 0,0 UV-I 332 W/m 18,0 km/h (3 Bft)
02.02.2014 12:32 8,8 C 6,7 C 72 % 1011,9 hPa 0,0 l/m 2 min 0 min 0,0 UV-I 332 W/m 18,0 km/h (3 Bft)
02.02.2014 12:34 8,8 C 6,7 C 73 % 1011,9 hPa 0,0 l/m 2 min 0 min 0,0 UV-I 330 W/m 12,9 km/h (3 Bft)
02.02.2014 12:36 8,8 C 6,7 C 73 % 1011,9 hPa 0,0 l/m 2 min 0 min 0,0 UV-I 329 W/m 5,1 km/h (1 Bft)
02.02.2014 12:38 8,9 C 6,7 C 73 % 1011,8 hPa 0,0 l/m 2 min 0 min 0,0 UV-I 330 W/m 0,0 km/h (0 Bft)
02.02.2014 12:40 9,1 C 6,7 C 72 % 1011,9 hPa 0,0 l/m 2 min 0 min 0,0 UV-I 332 W/m 20,6 km/h (4 Bft)
02.02.2014 12:42 9,1 C 6,7 C 71 % 1011,9 hPa 0,0 l/m 2 min 0 min 0,0 UV-I 329 W/m 18,0 km/h (3 Bft)
02.02.2014 12:44 9,1 C 7,2 C 71 % 1011,9 hPa 0,0 l/m 2 min 0 min 0,0 UV-I 332 W/m 15,4 km/h (3 Bft)
02.02.2014 12:46 9,1 C 7,2 C 71 % 1011,9 hPa 0,0 l/m 2 min 0 min 0,0 UV-I 332 W/m 12,9 km/h (3 Bft)
02.02.2014 12:48 9,1 C 7,2 C 70 % 1011,9 hPa 0,0 l/m 2 min 0 min 0,0 UV-I 334 W/m 15,4 km/h (3 Bft)
02.02.2014 12:50 9,2 C 7,2 C 71 % 1011,8 hPa 0,0 l/m 2 min 0 min 0,0 UV-I 334 W/m 12,9 km/h (3 Bft)
02.02.2014 12:52 9,1 C 7,2 C 70 % 1011,8 hPa 0,0 l/m 2 min 0 min 0,0 UV-I 338 W/m 15,4 km/h (3 Bft)
02.02.2014 12:54 9,2 C 7,2 C 73 % 1011,8 hPa 0,0 l/m 2 min 0 min 0,0 UV-I 338 W/m 5,1 km/h (1 Bft)
02.02.2014 12:56 9,2 C 7,2 C 70 % 1011,8 hPa 0,0 l/m 2 min 0 min 0,0 UV-I 338 W/m 0,0 km/h (0 Bft)
02.02.2014 12:58 9,2 C 7,2 C 69 % 1011,8 hPa 0,0 l/m 2 min 0 min 0,0 UV-I 339 W/m 15,4 km/h (3 Bft)
02.02.2014 13:00 9,1 C 7,2 C 69 % 1011,8 hPa 0,0 l/m 2 min 0 min 0,0 UV-I 338 W/m 15,4 km/h (3 Bft)
02.02.2014 13:02 9,1 C 7,2 C 69 % 1011,8 hPa 0,0 l/m 2 min 0 min 0,0 UV-I 339 W/m 7,7 km/h (2 Bft)
02.02.2014 13:04 9,2 C 7,2 C 70 % 1011,8 hPa 0,0 l/m 2 min 0 min 0,0 UV-I 336 W/m 7,7 km/h (2 Bft)
02.02.2014 13:06 9,3 C 7,2 C 70 % 1011,8 hPa 0,0 l/m 2 min 0 min 0,0 UV-I 336 W/m 15,4 km/h (3 Bft)
02.02.2014 13:08 9,2 C 7,2 C 69 % 1011,8 hPa 0,0 l/m 2 min 0 min 0,0 UV-I 334 W/m 18,0 km/h (3 Bft)
02.02.2014 13:10 9,3 C 7,8 C 69 % 1011,8 hPa 0,0 l/m 2 min 0 min 0,0 UV-I 334 W/m 10,3 km/h (2 Bft)
02.02.2014 13:12 9,4 C 7,8 C 69 % 1011,8 hPa 0,0 l/m 2 min 0 min 0,0 UV-I 338 W/m 10,3 km/h (2 Bft)
02.02.2014 13:14 9,4 C 7,2 C 68 % 1011,8 hPa 0,0 l/m 2 min 0 min 0,0 UV-I 338 W/m 12,9 km/h (3 Bft)
02.02.2014 13:16 9,3 C 7,2 C 67 % 1011,8 hPa 0,0 l/m 2 min 0 min 0,0 UV-I 330 W/m 12,9 km/h (3 Bft)
02.02.2014 13:18 9,3 C 7,2 C 68 % 1011,9 hPa 0,0 l/m 2 min 0 min 0,0 UV-I 336 W/m 25,7 km/h (4 Bft)
02.02.2014 13:20 9,2 C 7,2 C 68 % 1011,8 hPa 0,0 l/m 2 min 0 min 0,0 UV-I 332 W/m 18,0 km/h (3 Bft)
02.02.2014 13:22 9,2 C 7,2 C 68 % 1011,9 hPa 0,0 l/m 2 min 0 min 0,0 UV-I 334 W/m 10,3 km/h (2 Bft)
02.02.2014 13:24 9,4 C 7,2 C 68 % 1011,9 hPa 0,0 l/m 2 min 0 min 0,0 UV-I 332 W/m 20,6 km/h (4 Bft)
02.02.2014 13:26 9,5 C 7,2 C 69 % 1011,9 hPa 0,0 l/m 2 min 0 min 0,0 UV-I 334 W/m 7,7 km/h (2 Bft)
02.02.2014 13:28 9,6 C 7,8 C 68 % 1011,9 hPa 0,0 l/m 2 min 0 min 0,0 UV-I 334 W/m 5,1 km/h (1 Bft)
02.02.2014 13:30 9,7 C 7,8 C 68 % 1012,0 hPa 0,0 l/m 2 min 0 min 0,0 UV-I 330 W/m 12,9 km/h (3 Bft)
02.02.2014 13:32 9,7 C 7,8 C 67 % 1011,9 hPa 0,0 l/m 2 min 0 min 0,0 UV-I 330 W/m 18,0 km/h (3 Bft)
02.02.2014 13:34 9,7 C 7,2 C 66 % 1011,9 hPa 0,0 l/m 2 min 0 min 0,0 UV-I 334 W/m 20,6 km/h (4 Bft)
02.02.2014 13:36 9,7 C 7,8 C 67 % 1011,9 hPa 0,0 l/m 2 min 0 min 0,0 UV-I 330 W/m 7,7 km/h (2 Bft)
02.02.2014 13:38 9,6 C 7,8 C 66 % 1011,9 hPa 0,0 l/m 2 min 0 min 0,0 UV-I 330 W/m 20,6 km/h (4 Bft)
02.02.2014 13:40 9,5 C 7,8 C 67 % 1011,9 hPa 0,0 l/m 2 min 0 min 0,0 UV-I 329 W/m 12,9 km/h (3 Bft)
02.02.2014 13:42 9,5 C 7,2 C 65 % 1011,9 hPa 0,0 l/m 2 min 0 min 0,0 UV-I 325 W/m 18,0 km/h (3 Bft)
02.02.2014 13:44 9,4 C 7,8 C 65 % 1011,8 hPa 0,0 l/m 2 min 0 min 0,0 UV-I 327 W/m 15,4 km/h (3 Bft)
02.02.2014 13:46 9,5 C 7,8 C 66 % 1011,8 hPa 0,0 l/m 2 min 0 min 0,0 UV-I 325 W/m 7,7 km/h (2 Bft)
02.02.2014 13:48 9,6 C 7,8 C 66 % 1011,8 hPa 0,0 l/m 2 min 0 min 0,0 UV-I 322 W/m 10,3 km/h (2 Bft)
02.02.2014 13:50 9,6 C 7,8 C 66 % 1011,7 hPa 0,0 l/m 2 min 0 min 0,0 UV-I 322 W/m 0,0 km/h (0 Bft)
02.02.2014 13:52 9,8 C 7,8 C 66 % 1011,7 hPa 0,0 l/m 2 min 0 min 0,0 UV-I 318 W/m 0,0 km/h (0 Bft)
02.02.2014 13:54 9,8 C 7,8 C 66 % 1011,8 hPa 0,0 l/m 2 min 0 min 0,0 UV-I 316 W/m 23,2 km/h (4 Bft)
02.02.2014 13:56 9,8 C 7,8 C 66 % 1011,9 hPa 0,0 l/m 2 min 0 min 0,0 UV-I 315 W/m 25,7 km/h (4 Bft)
02.02.2014 13:58 9,7 C 7,8 C 65 % 1011,9 hPa 0,0 l/m 2 min 0 min 0,0 UV-I 315 W/m 20,6 km/h (4 Bft)
02.02.2014 14:00 9,7 C 7,8 C 65 % 1011,9 hPa 0,0 l/m 2 min 0 min 0,0 UV-I 316 W/m 20,6 km/h (4 Bft)
02.02.2014 14:02 9,6 C 7,8 C 65 % 1011,9 hPa 0,0 l/m 2 min 0 min 0,0 UV-I 311 W/m 18,0 km/h (3 Bft)
02.02.2014 14:04 9,6 C 7,8 C 66 % 1011,9 hPa 0,0 l/m 2 min 0 min 0,0 UV-I 308 W/m 5,1 km/h (1 Bft)
02.02.2014 14:06 9,6 C 7,8 C 66 % 1011,8 hPa 0,0 l/m 2 min 0 min 0,0 UV-I 302 W/m 7,7 km/h (2 Bft)
02.02.2014 14:08 9,6 C 7,8 C 66 % 1011,9 hPa 0,0 l/m 2 min 0 min 0,0 UV-I 302 W/m 12,9 km/h (3 Bft)
02.02.2014 14:10 9,6 C 7,8 C 65 % 1011,9 hPa 0,0 l/m 2 min 0 min 0,0 UV-I 299 W/m 5,1 km/h (1 Bft)
02.02.2014 14:12 9,6 C 7,8 C 65 % 1011,9 hPa 0,0 l/m 2 min 0 min 0,0 UV-I 294 W/m 12,9 km/h (3 Bft)
02.02.2014 14:14 9,6 C 7,8 C 66 % 1011,9 hPa 0,0 l/m 2 min 0 min 0,0 UV-I 297 W/m 20,6 km/h (4 Bft)
02.02.2014 14:16 9,6 C 7,8 C 65 % 1011,9 hPa 0,0 l/m 2 min 0 min 0,0 UV-I 297 W/m 15,4 km/h (3 Bft)
02.02.2014 14:18 9,6 C 7,8 C 65 % 1011,9 hPa 0,0 l/m 2 min 0 min 0,0 UV-I 295 W/m 12,9 km/h (3 Bft)
02.02.2014 14:20 9,5 C 7,8 C 65 % 1011,9 hPa 0,0 l/m 2 min 0 min 0,0 UV-I 297 W/m 20,6 km/h (4 Bft)
02.02.2014 14:22 9,5 C 7,8 C 66 % 1011,9 hPa 0,0 l/m 2 min 0 min 0,0 UV-I 294 W/m 15,4 km/h (3 Bft)
02.02.2014 14:24 9,5 C 7,8 C 66 % 1011,7 hPa 0,0 l/m 2 min 0 min 0,0 UV-I 290 W/m 20,6 km/h (4 Bft)
02.02.2014 14:26 9,6 C 7,8 C 66 % 1011,6 hPa 0,0 l/m 2 min 0 min 0,0 UV-I 288 W/m 0,0 km/h (0 Bft)
02.02.2014 14:28 9,7 C 7,8 C 65 % 1011,8 hPa 0,0 l/m 2 min 0 min 0,0 UV-I 287 W/m 15,4 km/h (3 Bft)
02.02.2014 14:30 9,7 C 7,8 C 65 % 1011,9 hPa 0,0 l/m 2 min 0 min 0,0 UV-I 283 W/m 10,3 km/h (2 Bft)
02.02.2014 14:32 9,8 C 7,8 C 66 % 1011,9 hPa 0,0 l/m 2 min 0 min 0,0 UV-I 283 W/m 0,0 km/h (0 Bft)
02.02.2014 14:34 10,0 C 7,8 C 66 % 1011,9 hPa 0,0 l/m 2 min 0 min 0,0 UV-I 281 W/m 10,3 km/h (2 Bft)
02.02.2014 14:36 10,0 C 7,8 C 65 % 1011,9 hPa 0,0 l/m 2 min 0 min 0,0 UV-I 279 W/m 7,7 km/h (2 Bft)
02.02.2014 14:38 9,9 C 7,8 C 64 % 1011,9 hPa 0,0 l/m 2 min 0 min 0,0 UV-I 276 W/m 7,7 km/h (2 Bft)
02.02.2014 14:40 9,8 C 7,8 C 64 % 1012,0 hPa 0,0 l/m 2 min 0 min 0,0 UV-I 274 W/m 18,0 km/h (3 Bft)
02.02.2014 14:42 9,7 C 7,8 C 64 % 1012,0 hPa 0,0 l/m 2 min 0 min 0,0 UV-I 267 W/m 23,2 km/h (4 Bft)
02.02.2014 14:44 9,6 C 7,8 C 64 % 1012,1 hPa 0,0 l/m 2 min 0 min 0,0 UV-I 264 W/m 30,9 km/h (5 Bft)
02.02.2014 14:46 9,6 C 7,8 C 65 % 1012,1 hPa 0,0 l/m 2 min 0 min 0,0 UV-I 265 W/m 18,0 km/h (3 Bft)
02.02.2014 14:48 9,6 C 7,8 C 65 % 1012,1 hPa 0,0 l/m 2 min 0 min 0,0 UV-I 262 W/m 25,7 km/h (4 Bft)
02.02.2014 14:50 9,6 C 7,8 C 65 % 1012,1 hPa 0,0 l/m 2 min 0 min 0,0 UV-I 262 W/m 15,4 km/h (3 Bft)
02.02.2014 14:52 9,6 C 7,8 C 66 % 1012,1 hPa 0,0 l/m 2 min 0 min 0,0 UV-I 260 W/m 7,7 km/h (2 Bft)
02.02.2014 14:54 9,6 C 7,8 C 65 % 1012,1 hPa 0,0 l/m 2 min 0 min 0,0 UV-I 255 W/m 12,9 km/h (3 Bft)
02.02.2014 14:56 9,6 C 7,8 C 65 % 1012,1 hPa 0,0 l/m 2 min 0 min 0,0 UV-I 253 W/m 18,0 km/h (3 Bft)
02.02.2014 14:58 9,7 C 7,8 C 64 % 1012,1 hPa 0,0 l/m 2 min 0 min 0,0 UV-I 251 W/m 15,4 km/h (3 Bft)
02.02.2014 15:00 9,6 C 7,8 C 64 % 1012,2 hPa 0,0 l/m 2 min 0 min 0,0 UV-I 246 W/m 20,6 km/h (4 Bft)
02.02.2014 15:02 9,6 C 7,8 C 64 % 1012,2 hPa 0,0 l/m 2 min 0 min 0,0 UV-I 243 W/m 18,0 km/h (3 Bft)
02.02.2014 15:04 9,6 C 7,8 C 65 % 1012,3 hPa 0,0 l/m 2 min 0 min 0,0 UV-I 241 W/m 12,9 km/h (3 Bft)
02.02.2014 15:06 9,6 C 7,8 C 64 % 1012,3 hPa 0,0 l/m 2 min 0 min 0,0 UV-I 234 W/m 18,0 km/h (3 Bft)
02.02.2014 15:08 9,6 C 7,8 C 65 % 1012,3 hPa 0,0 l/m 2 min 0 min 0,0 UV-I 230 W/m 12,9 km/h (3 Bft)
02.02.2014 15:10 9,6 C 7,8 C 64 % 1012,3 hPa 0,0 l/m 2 min 0 min 0,0 UV-I 229 W/m 12,9 km/h (3 Bft)
02.02.2014 15:12 9,6 C 7,8 C 65 % 1012,3 hPa 0,0 l/m 2 min 0 min 0,0 UV-I 225 W/m 18,0 km/h (3 Bft)
02.02.2014 15:14 9,6 C 7,8 C 64 % 1012,3 hPa 0,0 l/m 2 min 0 min 0,0 UV-I 221 W/m 18,0 km/h (3 Bft)
02.02.2014 15:16 9,6 C 7,8 C 65 % 1012,4 hPa 0,0 l/m 2 min 0 min 0,0 UV-I 221 W/m 0,0 km/h (0 Bft)
02.02.2014 15:18 9,7 C 7,2 C 66 % 1012,4 hPa 0,0 l/m 2 min 0 min 0,0 UV-I 220 W/m 18,0 km/h (3 Bft)
02.02.2014 15:20 9,7 C 7,2 C 64 % 1012,4 hPa 0,0 l/m 2 min 0 min 0,0 UV-I 230 W/m 23,2 km/h (4 Bft)
02.02.2014 15:22 9,6 C 7,8 C 63 % 1012,4 hPa 0,0 l/m 2 min 0 min 0,0 UV-I 236 W/m 15,4 km/h (3 Bft)
02.02.2014 15:24 9,5 C 7,2 C 62 % 1012,6 hPa 0,0 l/m 2 min 0 min 0,0 UV-I 230 W/m 25,7 km/h (4 Bft)
02.02.2014 15:26 9,4 C 7,2 C 64 % 1012,5 hPa 0,0 l/m 2 min 0 min 0,0 UV-I 229 W/m 2,6 km/h (1 Bft)
02.02.2014 15:28 9,4 C 7,2 C 64 % 1012,5 hPa 0,0 l/m 2 min 0 min 0,0 UV-I 230 W/m 18,0 km/h (3 Bft)
02.02.2014 15:30 9,4 C 7,2 C 64 % 1012,5 hPa 0,0 l/m 2 min 0 min 0,0 UV-I 227 W/m 10,3 km/h (2 Bft)
02.02.2014 15:32 9,3 C 7,2 C 65 % 1012,6 hPa 0,0 l/m 2 min 0 min 0,0 UV-I 225 W/m 7,7 km/h (2 Bft)
02.02.2014 15:34 9,3 C 7,2 C 66 % 1012,5 hPa 0,0 l/m 2 min 0 min 0,0 UV-I 206 W/m 7,7 km/h (2 Bft)
02.02.2014 15:36 9,3 C 7,2 C 66 % 1012,6 hPa 0,0 l/m 2 min 0 min 0,0 UV-I 200 W/m 10,3 km/h (2 Bft)
02.02.2014 15:38 9,2 C 7,2 C 66 % 1012,6 hPa 0,0 l/m 2 min 0 min 0,0 UV-I 186 W/m 7,7 km/h (2 Bft)
02.02.2014 15:40 9,2 C 7,2 C 66 % 1012,6 hPa 0,0 l/m 2 min 0 min 0,0 UV-I 171 W/m 7,7 km/h (2 Bft)
02.02.2014 15:42 9,2 C 7,2 C 66 % 1012,7 hPa 0,0 l/m 2 min 0 min 0,0 UV-I 169 W/m 10,3 km/h (2 Bft)
02.02.2014 15:44 9,2 C 7,2 C 66 % 1012,7 hPa 0,0 l/m 2 min 0 min 0,0 UV-I 167 W/m 20,6 km/h (4 Bft)
02.02.2014 15:46 9,2 C 7,2 C 66 % 1012,6 hPa 0,0 l/m 2 min 0 min 0,0 UV-I 158 W/m 15,4 km/h (3 Bft)
02.02.2014 15:48 9,1 C 7,2 C 65 % 1012,7 hPa 0,0 l/m 2 min 0 min 0,0 UV-I 155 W/m 18,0 km/h (3 Bft)
02.02.2014 15:50 9,1 C 7,2 C 66 % 1012,7 hPa 0,0 l/m 2 min 0 min 0,0 UV-I 149 W/m 15,4 km/h (3 Bft)
02.02.2014 15:52 9,1 C 7,2 C 66 % 1012,7 hPa 0,0 l/m 2 min 0 min 0,0 UV-I 142 W/m 10,3 km/h (2 Bft)
02.02.2014 15:54 9,1 C 7,2 C 66 % 1012,6 hPa 0,0 l/m 2 min 0 min 0,0 UV-I 137 W/m 15,4 km/h (3 Bft)
02.02.2014 15:56 9,0 C 7,2 C 66 % 1012,6 hPa 0,0 l/m 2 min 0 min 0,0 UV-I 134 W/m 10,3 km/h (2 Bft)
02.02.2014 15:58 9,0 C 7,2 C 66 % 1012,6 hPa 0,0 l/m 2 min 0 min 0,0 UV-I 128 W/m 12,9 km/h (3 Bft)
02.02.2014 16:00 9,0 C 6,7 C 66 % 1012,7 hPa 0,0 l/m 2 min 0 min 0,0 UV-I 125 W/m 10,3 km/h (2 Bft)
02.02.2014 16:02 8,9 C 6,7 C 66 % 1012,7 hPa 0,0 l/m 2 min 0 min 0,0 UV-I 120 W/m 7,7 km/h (2 Bft)
02.02.2014 16:04 8,9 C 6,7 C 66 % 1012,7 hPa 0,0 l/m 2 min 0 min 0,0 UV-I 118 W/m 12,9 km/h (3 Bft)
02.02.2014 16:06 8,9 C 6,7 C 66 % 1012,7 hPa 0,0 l/m 2 min 0 min 0,0 UV-I 114 W/m 23,2 km/h (4 Bft)
02.02.2014 16:08 8,9 C 6,7 C 65 % 1012,7 hPa 0,0 l/m 0 min 0 min 0,0 UV-I 90 W/m 15,4 km/h (3 Bft)
02.02.2014 16:10 8,9 C 6,7 C 66 % 1012,7 hPa 0,0 l/m 0 min 0 min 0,0 UV-I 42 W/m 12,9 km/h (3 Bft)
02.02.2014 16:12 8,9 C 6,7 C 66 % 1012,7 hPa 0,0 l/m 0 min 0 min 0,0 UV-I 39 W/m 10,3 km/h (2 Bft)
02.02.2014 16:14 8,9 C 6,7 C 66 % 1012,8 hPa 0,0 l/m 0 min 0 min 0,0 UV-I 37 W/m 5,1 km/h (1 Bft)
02.02.2014 16:16 8,8 C 6,7 C 66 % 1012,9 hPa 0,0 l/m 0 min 0 min 0,0 UV-I 37 W/m 10,3 km/h (2 Bft)
02.02.2014 16:18 8,8 C 6,7 C 66 % 1012,8 hPa 0,0 l/m 0 min 0 min 0,0 UV-I 37 W/m 15,4 km/h (3 Bft)
02.02.2014 16:20 8,7 C 6,7 C 67 % 1012,8 hPa 0,0 l/m 0 min 0 min 0,0 UV-I 35 W/m 2,6 km/h (1 Bft)
02.02.2014 16:22 8,7 C 6,1 C 67 % 1012,9 hPa 0,0 l/m 0 min 0 min 0,0 UV-I 35 W/m 5,1 km/h (1 Bft)
02.02.2014 16:24 8,7 C 6,1 C 67 % 1012,9 hPa 0,0 l/m 0 min 0 min 0,0 UV-I 33 W/m 10,3 km/h (2 Bft)
02.02.2014 16:26 8,7 C 6,7 C 67 % 1012,9 hPa 0,0 l/m 0 min 0 min 0,0 UV-I 33 W/m 0,0 km/h (0 Bft)
02.02.2014 16:28 8,6 C 6,1 C 67 % 1013,0 hPa 0,0 l/m 0 min 0 min 0,0 UV-I 32 W/m 12,9 km/h (3 Bft)
02.02.2014 16:30 8,6 C 6,7 C 67 % 1013,0 hPa 0,0 l/m 0 min 0 min 0,0 UV-I 32 W/m 12,9 km/h (3 Bft)
02.02.2014 16:32 8,6 C 6,7 C 66 % 1013,1 hPa 0,0 l/m 0 min 0 min 0,0 UV-I 30 W/m 18,0 km/h (3 Bft)
02.02.2014 16:34 8,6 C 6,7 C 67 % 1013,1 hPa 0,0 l/m 0 min 0 min 0,0 UV-I 30 W/m 15,4 km/h (3 Bft)
02.02.2014 16:36 8,6 C 6,7 C 67 % 1013,1 hPa 0,0 l/m 0 min 0 min 0,0 UV-I 28 W/m 5,1 km/h (1 Bft)
02.02.2014 16:38 8,6 C 6,7 C 66 % 1013,2 hPa 0,0 l/m 0 min 0 min 0,0 UV-I 28 W/m 20,6 km/h (4 Bft)
02.02.2014 16:40 8,6 C 6,7 C 66 % 1013,2 hPa 0,0 l/m 0 min 0 min 0,0 UV-I 26 W/m 10,3 km/h (2 Bft)
02.02.2014 16:42 8,6 C 6,7 C 67 % 1013,2 hPa 0,0 l/m 0 min 0 min 0,0 UV-I 26 W/m 10,3 km/h (2 Bft)
02.02.2014 16:44 8,5 C 6,1 C 67 % 1013,2 hPa 0,0 l/m 0 min 0 min 0,0 UV-I 25 W/m 7,7 km/h (2 Bft)
02.02.2014 16:46 8,4 C 6,1 C 67 % 1013,3 hPa 0,0 l/m 0 min 0 min 0,0 UV-I 25 W/m 10,3 km/h (2 Bft)
02.02.2014 16:48 8,4 C 6,1 C 67 % 1013,3 hPa 0,0 l/m 0 min 0 min 0,0 UV-I 23 W/m 10,3 km/h (2 Bft)
02.02.2014 16:50 8,4 C 6,1 C 67 % 1013,2 hPa 0,0 l/m 0 min 0 min 0,0 UV-I 23 W/m 10,3 km/h (2 Bft)
02.02.2014 16:52 8,4 C 6,1 C 66 % 1013,3 hPa 0,0 l/m 0 min 0 min 0,0 UV-I 21 W/m 12,9 km/h (3 Bft)
02.02.2014 16:54 8,3 C 6,1 C 67 % 1013,3 hPa 0,0 l/m 0 min 0 min 0,0 UV-I 19 W/m 5,1 km/h (1 Bft)
02.02.2014 16:56 8,3 C 6,1 C 66 % 1013,3 hPa 0,0 l/m 0 min 0 min 0,0 UV-I 19 W/m 2,6 km/h (1 Bft)
02.02.2014 16:58 8,2 C 6,1 C 67 % 1013,3 hPa 0,0 l/m 0 min 0 min 0,0 UV-I 18 W/m 12,9 km/h (3 Bft)
02.02.2014 17:00 8,2 C 6,1 C 67 % 1013,4 hPa 0,0 l/m 0 min 0 min 0,0 UV-I 18 W/m 18,0 km/h (3 Bft)
02.02.2014 17:02 8,1 C 5,6 C 67 % 1013,3 hPa 0,0 l/m 0 min 0 min 0,0 UV-I 16 W/m 15,4 km/h (3 Bft)
02.02.2014 17:04 8,1 C 5,6 C 67 % 1013,3 hPa 0,0 l/m 0 min 0 min 0,0 UV-I 14 W/m 0,0 km/h (0 Bft)
02.02.2014 17:06 8,1 C 5,6 C 67 % 1013,4 hPa 0,0 l/m 0 min 0 min 0,0 UV-I 14 W/m 10,3 km/h (2 Bft)
02.02.2014 17:08 8,0 C 5,6 C 67 % 1013,4 hPa 0,0 l/m 0 min 0 min 0,0 UV-I 12 W/m 10,3 km/h (2 Bft)
02.02.2014 17:10 8,0 C 5,6 C 67 % 1013,4 hPa 0,0 l/m 0 min 0 min 0,0 UV-I 12 W/m 5,1 km/h (1 Bft)
02.02.2014 17:12 7,9 C 5,6 C 67 % 1013,4 hPa 0,0 l/m 0 min 0 min 0,0 UV-I 12 W/m 7,7 km/h (2 Bft)
02.02.2014 17:14 7,9 C 5,6 C 67 % 1013,5 hPa 0,0 l/m 0 min 0 min 0,0 UV-I 11 W/m 7,7 km/h (2 Bft)
02.02.2014 17:16 7,9 C 5,6 C 67 % 1013,5 hPa 0,0 l/m 0 min 0 min 0,0 UV-I 11 W/m 12,9 km/h (3 Bft)
02.02.2014 17:18 7,9 C 5,6 C 67 % 1013,5 hPa 0,0 l/m 0 min 0 min 0,0 UV-I 9 W/m 5,1 km/h (1 Bft)
02.02.2014 17:20 7,8 C 5,0 C 68 % 1013,6 hPa 0,0 l/m 0 min 0 min 0,0 UV-I 7 W/m 2,6 km/h (1 Bft)
02.02.2014 17:22 7,7 C 5,0 C 68 % 1013,6 hPa 0,0 l/m 0 min 0 min 0,0 UV-I 7 W/m 7,7 km/h (2 Bft)
02.02.2014 17:24 7,7 C 5,0 C 68 % 1013,6 hPa 0,0 l/m 0 min 0 min 0,0 UV-I 7 W/m 7,7 km/h (2 Bft)
02.02.2014 17:26 7,6 C 5,0 C 68 % 1013,7 hPa 0,0 l/m 0 min 0 min 0,0 UV-I 5 W/m 5,1 km/h (1 Bft)
02.02.2014 17:28 7,6 C 5,0 C 69 % 1013,6 hPa 0,0 l/m 0 min 0 min 0,0 UV-I 5 W/m 0,0 km/h (0 Bft)
02.02.2014 17:30 7,6 C 5,0 C 69 % 1013,7 hPa 0,0 l/m 0 min 0 min 0,0 UV-I 5 W/m 0,0 km/h (0 Bft)
02.02.2014 17:32 7,5 C 4,4 C 69 % 1013,7 hPa 0,0 l/m 0 min 0 min 0,0 UV-I 0 W/m 5,1 km/h (1 Bft)
02.02.2014 17:34 7,4 C 5,0 C 69 % 1013,6 hPa 0,0 l/m 0 min 0 min 0,0 UV-I 0 W/m 12,9 km/h (3 Bft)
02.02.2014 17:36 7,4 C 5,0 C 69 % 1013,6 hPa 0,0 l/m 0 min 0 min 0,0 UV-I 0 W/m 5,1 km/h (1 Bft)
02.02.2014 17:38 7,4 C 5,0 C 69 % 1013,6 hPa 0,0 l/m 0 min 0 min 0,0 UV-I 0 W/m 2,6 km/h (1 Bft)
02.02.2014 17:40 7,4 C 5,0 C 69 % 1013,6 hPa 0,0 l/m 0 min 0 min 0,0 UV-I 0 W/m 12,9 km/h (3 Bft)
02.02.2014 17:42 7,3 C 4,4 C 69 % 1013,6 hPa 0,0 l/m 0 min 0 min 0,0 UV-I 0 W/m 0,0 km/h (0 Bft)
02.02.2014 17:44 7,3 C 4,4 C 70 % 1013,6 hPa 0,0 l/m 0 min 0 min 0,0 UV-I 0 W/m 0,0 km/h (0 Bft)
02.02.2014 17:46 7,2 C 4,4 C 70 % 1013,7 hPa 0,0 l/m 0 min 0 min 0,0 UV-I 0 W/m 7,7 km/h (2 Bft)
02.02.2014 17:48 7,1 C 4,4 C 70 % 1013,8 hPa 0,0 l/m 0 min 0 min 0,0 UV-I 0 W/m 2,6 km/h (1 Bft)
02.02.2014 17:50 7,1 C 4,4 C 71 % 1013,7 hPa 0,0 l/m 0 min 0 min 0,0 UV-I 0 W/m 0,0 km/h (0 Bft)
02.02.2014 17:52 7,1 C 4,4 C 71 % 1013,8 hPa 0,0 l/m 0 min 0 min 0,0 UV-I 0 W/m 0,0 km/h (0 Bft)
02.02.2014 17:54 7,0 C 4,4 C 71 % 1013,9 hPa 0,0 l/m 0 min 0 min 0,0 UV-I 0 W/m 0,0 km/h (0 Bft)
02.02.2014 17:56 6,9 C 3,9 C 71 % 1013,9 hPa 0,0 l/m 0 min 0 min 0,0 UV-I 0 W/m 0,0 km/h (0 Bft)
02.02.2014 17:58 6,9 C 3,9 C 72 % 1014,1 hPa 0,0 l/m 0 min 0 min 0,0 UV-I 0 W/m 2,6 km/h (1 Bft)
02.02.2014 18:00 6,8 C 3,9 C 72 % 1014,1 hPa 0,0 l/m 0 min 0 min 0,0 UV-I 0 W/m 0,0 km/h (0 Bft)
02.02.2014 18:02 6,8 C 3,9 C 72 % 1014,0 hPa 0,0 l/m 0 min 0 min 0,0 UV-I 0 W/m 0,0 km/h (0 Bft)
02.02.2014 18:04 6,8 C 4,4 C 72 % 1014,0 hPa 0,0 l/m 0 min 0 min 0,0 UV-I 0 W/m 7,7 km/h (2 Bft)
02.02.2014 18:06 6,7 C 3,9 C 72 % 1014,0 hPa 0,0 l/m 0 min 0 min 0,0 UV-I 0 W/m 0,0 km/h (0 Bft)
02.02.2014 18:08 6,7 C 3,9 C 72 % 1014,1 hPa 0,0 l/m 0 min 0 min 0,0 UV-I 0 W/m 0,0 km/h (0 Bft)
02.02.2014 18:10 6,7 C 3,9 C 72 % 1014,2 hPa 0,0 l/m 0 min 0 min 0,0 UV-I 0 W/m 0,0 km/h (0 Bft)
02.02.2014 18:12 6,6 C 3,9 C 72 % 1014,2 hPa 0,0 l/m 0 min 0 min 0,0 UV-I 0 W/m 0,0 km/h (0 Bft)
02.02.2014 18:14 6,5 C 3,3 C 73 % 1014,2 hPa 0,0 l/m 0 min 0 min 0,0 UV-I 0 W/m 0,0 km/h (0 Bft)
02.02.2014 18:16 6,4 C 3,3 C 73 % 1014,3 hPa 0,0 l/m 0 min 0 min 0,0 UV-I 0 W/m 0,0 km/h (0 Bft)
02.02.2014 18:18 6,3 C 3,3 C 73 % 1014,3 hPa 0,0 l/m 0 min 0 min 0,0 UV-I 0 W/m 0,0 km/h (0 Bft)
02.02.2014 18:20 6,3 C 2,8 C 74 % 1014,3 hPa 0,0 l/m 0 min 0 min 0,0 UV-I 0 W/m 0,0 km/h (0 Bft)
02.02.2014 18:22 6,2 C 3,3 C 74 % 1014,3 hPa 0,0 l/m 0 min 0 min 0,0 UV-I 0 W/m 0,0 km/h (0 Bft)
02.02.2014 18:24 6,2 C 2,8 C 74 % 1014,3 hPa 0,0 l/m 0 min 0 min 0,0 UV-I 0 W/m 0,0 km/h (0 Bft)
02.02.2014 18:26 6,1 C 2,8 C 75 % 1014,3 hPa 0,0 l/m 0 min 0 min 0,0 UV-I 0 W/m 0,0 km/h (0 Bft)
02.02.2014 18:28 6,0 C 2,8 C 75 % 1014,4 hPa 0,0 l/m 0 min 0 min 0,0 UV-I 0 W/m 0,0 km/h (0 Bft)
02.02.2014 18:30 5,9 C 2,8 C 76 % 1014,4 hPa 0,0 l/m 0 min 0 min 0,0 UV-I 0 W/m 0,0 km/h (0 Bft)
02.02.2014 18:32 5,8 C 2,8 C 76 % 1014,5 hPa 0,0 l/m 0 min 0 min 0,0 UV-I 0 W/m 0,0 km/h (0 Bft)
02.02.2014 18:34 5,8 C 2,2 C 77 % 1014,5 hPa 0,0 l/m 0 min 0 min 0,0 UV-I 0 W/m 0,0 km/h (0 Bft)
02.02.2014 18:36 5,7 C 2,2 C 77 % 1014,5 hPa 0,0 l/m 0 min 0 min 0,0 UV-I 0 W/m 0,0 km/h (0 Bft)
02.02.2014 18:38 5,6 C 2,2 C 78 % 1014,5 hPa 0,0 l/m 0 min 0 min 0,0 UV-I 0 W/m 0,0 km/h (0 Bft)
02.02.2014 18:40 5,6 C 2,2 C 78 % 1014,6 hPa 0,0 l/m 0 min 0 min 0,0 UV-I 0 W/m 0,0 km/h (0 Bft)
02.02.2014 18:42 5,5 C 2,2 C 79 % 1014,6 hPa 0,0 l/m 0 min 0 min 0,0 UV-I 0 W/m 0,0 km/h (0 Bft)
02.02.2014 18:44 5,4 C 2,2 C 79 % 1014,6 hPa 0,0 l/m 0 min 0 min 0,0 UV-I 0 W/m 0,0 km/h (0 Bft)
02.02.2014 18:46 5,4 C 2,2 C 79 % 1014,6 hPa 0,0 l/m 0 min 0 min 0,0 UV-I 0 W/m 0,0 km/h (0 Bft)
02.02.2014 18:48 5,5 C 2,8 C 79 % 1014,7 hPa 0,0 l/m 0 min 0 min 0,0 UV-I 0 W/m 7,7 km/h (2 Bft)
02.02.2014 18:50 5,6 C 2,8 C 79 % 1014,6 hPa 0,0 l/m 0 min 0 min 0,0 UV-I 0 W/m 7,7 km/h (2 Bft)
02.02.2014 18:52 5,6 C 2,8 C 79 % 1014,7 hPa 0,0 l/m 0 min 0 min 0,0 UV-I 0 W/m 0,0 km/h (0 Bft)
02.02.2014 18:54 5,6 C 2,8 C 79 % 1014,7 hPa 0,0 l/m 0 min 0 min 0,0 UV-I 0 W/m 0,0 km/h (0 Bft)
02.02.2014 18:56 5,5 C 2,8 C 79 % 1014,7 hPa 0,0 l/m 0 min 0 min 0,0 UV-I 0 W/m 0,0 km/h (0 Bft)
02.02.2014 18:58 5,5 C 2,8 C 79 % 1014,8 hPa 0,0 l/m 0 min 0 min 0,0 UV-I 0 W/m 0,0 km/h (0 Bft)
02.02.2014 19:00 5,4 C 2,8 C 80 % 1014,8 hPa 0,0 l/m 0 min 0 min 0,0 UV-I 0 W/m 0,0 km/h (0 Bft)
02.02.2014 19:02 5,4 C 2,8 C 80 % 1014,8 hPa 0,0 l/m 0 min 0 min 0,0 UV-I 0 W/m 0,0 km/h (0 Bft)
02.02.2014 19:04 5,4 C 2,8 C 80 % 1014,9 hPa 0,0 l/m 0 min 0 min 0,0 UV-I 0 W/m 12,9 km/h (3 Bft)
02.02.2014 19:06 5,4 C 3,3 C 80 % 1014,9 hPa 0,0 l/m 0 min 0 min 0,0 UV-I 0 W/m 5,1 km/h (1 Bft)
02.02.2014 19:08 5,4 C 3,3 C 80 % 1015,0 hPa 0,0 l/m 0 min 0 min 0,0 UV-I 0 W/m 7,7 km/h (2 Bft)
02.02.2014 19:10 5,4 C 3,3 C 80 % 1015,0 hPa 0,0 l/m 0 min 0 min 0,0 UV-I 0 W/m 5,1 km/h (1 Bft)
02.02.2014 19:12 5,4 C 2,8 C 80 % 1015,0 hPa 0,0 l/m 0 min 0 min 0,0 UV-I 0 W/m 5,1 km/h (1 Bft)
02.02.2014 19:14 5,4 C 2,8 C 80 % 1015,1 hPa 0,0 l/m 0 min 0 min 0,0 UV-I 0 W/m 7,7 km/h (2 Bft)
02.02.2014 19:16 5,3 C 2,8 C 80 % 1015,0 hPa 0,0 l/m 0 min 0 min 0,0 UV-I 0 W/m 7,7 km/h (2 Bft)
02.02.2014 19:18 5,3 C 2,8 C 80 % 1015,1 hPa 0,0 l/m 0 min 0 min 0,0 UV-I 0 W/m 0,0 km/h (0 Bft)
02.02.2014 19:20 5,2 C 2,8 C 80 % 1015,1 hPa 0,0 l/m 0 min 0 min 0,0 UV-I 0 W/m 2,6 km/h (1 Bft)
02.02.2014 19:22 5,2 C 2,8 C 80 % 1015,1 hPa 0,0 l/m 0 min 0 min 0,0 UV-I 0 W/m 5,1 km/h (1 Bft)
02.02.2014 19:24 5,2 C 2,8 C 80 % 1015,1 hPa 0,0 l/m 0 min 0 min 0,0 UV-I 0 W/m 2,6 km/h (1 Bft)
02.02.2014 19:26 5,2 C 2,2 C 80 % 1015,2 hPa 0,0 l/m 0 min 0 min 0,0 UV-I 0 W/m 0,0 km/h (0 Bft)
02.02.2014 19:28 5,1 C 2,2 C 81 % 1015,2 hPa 0,0 l/m 0 min 0 min 0,0 UV-I 0 W/m 5,1 km/h (1 Bft)
02.02.2014 19:30 5,0 C 2,2 C 81 % 1015,2 hPa 0,0 l/m 0 min 0 min 0,0 UV-I 0 W/m 2,6 km/h (1 Bft)
02.02.2014 19:32 4,9 C 2,2 C 81 % 1015,3 hPa 0,0 l/m 0 min 0 min 0,0 UV-I 0 W/m 0,0 km/h (0 Bft)
02.02.2014 19:34 4,9 C 2,2 C 81 % 1015,3 hPa 0,0 l/m 0 min 0 min 0,0 UV-I 0 W/m 5,1 km/h (1 Bft)
02.02.2014 19:36 4,9 C 2,2 C 81 % 1015,3 hPa 0,0 l/m 0 min 0 min 0,0 UV-I 0 W/m 0,0 km/h (0 Bft)
02.02.2014 19:38 4,9 C 2,2 C 81 % 1015,3 hPa 0,0 l/m 0 min 0 min 0,0 UV-I 0 W/m 0,0 km/h (0 Bft)
02.02.2014 19:40 4,9 C 2,2 C 81 % 1015,3 hPa 0,0 l/m 0 min 0 min 0,0 UV-I 0 W/m 0,0 km/h (0 Bft)
02.02.2014 19:42 4,9 C 2,2 C 81 % 1015,3 hPa 0,0 l/m 0 min 0 min 0,0 UV-I 0 W/m 5,1 km/h (1 Bft)
02.02.2014 19:44 4,8 C 2,2 C 81 % 1015,3 hPa 0,0 l/m 0 min 0 min 0,0 UV-I 0 W/m 2,6 km/h (1 Bft)
02.02.2014 19:46 4,8 C 2,2 C 82 % 1015,4 hPa 0,0 l/m 0 min 0 min 0,0 UV-I 0 W/m 2,6 km/h (1 Bft)
02.02.2014 19:48 4,7 C 2,2 C 82 % 1015,4 hPa 0,0 l/m 0 min 0 min 0,0 UV-I 0 W/m 0,0 km/h (0 Bft)
02.02.2014 19:50 4,7 C 2,2 C 82 % 1015,4 hPa 0,0 l/m 0 min 0 min 0,0 UV-I 0 W/m 5,1 km/h (1 Bft)
02.02.2014 19:52 4,7 C 2,2 C 82 % 1015,4 hPa 0,0 l/m 0 min 0 min 0,0 UV-I 0 W/m 0,0 km/h (0 Bft)
02.02.2014 19:54 4,7 C 1,7 C 82 % 1015,5 hPa 0,0 l/m 0 min 0 min 0,0 UV-I 0 W/m 0,0 km/h (0 Bft)
02.02.2014 19:56 4,7 C 2,2 C 82 % 1015,5 hPa 0,0 l/m 0 min 0 min 0,0 UV-I 0 W/m 5,1 km/h (1 Bft)
02.02.2014 19:58 4,6 C 1,7 C 82 % 1015,5 hPa 0,0 l/m 0 min 0 min 0,0 UV-I 0 W/m 0,0 km/h (0 Bft)
02.02.2014 20:00 4,5 C 1,7 C 82 % 1015,6 hPa 0,0 l/m 0 min 0 min 0,0 UV-I 0 W/m 0,0 km/h (0 Bft)
02.02.2014 20:02 4,4 C 1,7 C 82 % 1015,6 hPa 0,0 l/m 0 min 0 min 0,0 UV-I 0 W/m 2,6 km/h (1 Bft)
02.02.2014 20:04 4,3 C 1,7 C 83 % 1015,6 hPa 0,0 l/m 0 min 0 min 0,0 UV-I 0 W/m 2,6 km/h (1 Bft)
02.02.2014 20:06 4,3 C 1,7 C 83 % 1015,7 hPa 0,0 l/m 0 min 0 min 0,0 UV-I 0 W/m 0,0 km/h (0 Bft)
02.02.2014 20:08 4,2 C 1,1 C 83 % 1015,7 hPa 0,0 l/m 0 min 0 min 0,0 UV-I 0 W/m 0,0 km/h (0 Bft)
02.02.2014 20:10 4,2 C 1,1 C 83 % 1015,7 hPa 0,0 l/m 0 min 0 min 0,0 UV-I 0 W/m 0,0 km/h (0 Bft)
02.02.2014 20:12 4,1 C 1,1 C 83 % 1015,7 hPa 0,0 l/m 0 min 0 min 0,0 UV-I 0 W/m 2,6 km/h (1 Bft)
02.02.2014 20:14 4,0 C 1,1 C 84 % 1015,7 hPa 0,0 l/m 0 min 0 min 0,0 UV-I 0 W/m 2,6 km/h (1 Bft)
02.02.2014 20:16 4,0 C 1,1 C 84 % 1015,7 hPa 0,0 l/m 0 min 0 min 0,0 UV-I 0 W/m 0,0 km/h (0 Bft)
02.02.2014 20:18 4,0 C 1,1 C 84 % 1015,7 hPa 0,0 l/m 0 min 0 min 0,0 UV-I 0 W/m 0,0 km/h (0 Bft)
02.02.2014 20:20 3,9 C 1,1 C 84 % 1015,8 hPa 0,0 l/m 0 min 0 min 0,0 UV-I 0 W/m 0,0 km/h (0 Bft)
02.02.2014 20:22 3,9 C 1,1 C 84 % 1015,7 hPa 0,0 l/m 0 min 0 min 0,0 UV-I 0 W/m 0,0 km/h (0 Bft)
02.02.2014 20:24 3,9 C 1,1 C 84 % 1015,8 hPa 0,0 l/m 0 min 0 min 0,0 UV-I 0 W/m 0,0 km/h (0 Bft)
02.02.2014 20:26 3,9 C 1,1 C 84 % 1015,8 hPa 0,0 l/m 0 min 0 min 0,0 UV-I 0 W/m 0,0 km/h (0 Bft)
02.02.2014 20:28 3,9 C 1,1 C 84 % 1015,9 hPa 0,0 l/m 0 min 0 min 0,0 UV-I 0 W/m 0,0 km/h (0 Bft)
02.02.2014 20:30 3,8 C 1,1 C 84 % 1015,9 hPa 0,0 l/m 0 min 0 min 0,0 UV-I 0 W/m 0,0 km/h (0 Bft)
02.02.2014 20:32 3,8 C 1,1 C 84 % 1016,0 hPa 0,0 l/m 0 min 0 min 0,0 UV-I 0 W/m 0,0 km/h (0 Bft)
02.02.2014 20:34 3,7 C 1,1 C 85 % 1015,9 hPa 0,0 l/m 0 min 0 min 0,0 UV-I 0 W/m 0,0 km/h (0 Bft)
02.02.2014 20:36 3,7 C 1,1 C 85 % 1016,1 hPa 0,0 l/m 0 min 0 min 0,0 UV-I 0 W/m 0,0 km/h (0 Bft)
02.02.2014 20:38 3,7 C 1,1 C 85 % 1016,0 hPa 0,0 l/m 0 min 0 min 0,0 UV-I 0 W/m 0,0 km/h (0 Bft)
02.02.2014 20:40 3,6 C 1,1 C 85 % 1016,1 hPa 0,0 l/m 0 min 0 min 0,0 UV-I 0 W/m 0,0 km/h (0 Bft)
02.02.2014 20:42 3,6 C 1,1 C 85 % 1016,1 hPa 0,0 l/m 0 min 0 min 0,0 UV-I 0 W/m 0,0 km/h (0 Bft)
02.02.2014 20:44 3,4 C 1,1 C 85 % 1016,1 hPa 0,0 l/m 0 min 0 min 0,0 UV-I 0 W/m 0,0 km/h (0 Bft)
02.02.2014 20:46 3,4 C 1,1 C 85 % 1016,1 hPa 0,0 l/m 0 min 0 min 0,0 UV-I 0 W/m 0,0 km/h (0 Bft)
02.02.2014 20:48 3,4 C 0,6 C 86 % 1016,2 hPa 0,0 l/m 0 min 0 min 0,0 UV-I 0 W/m 0,0 km/h (0 Bft)
02.02.2014 20:50 3,4 C 0,6 C 86 % 1016,2 hPa 0,0 l/m 0 min 0 min 0,0 UV-I 0 W/m 0,0 km/h (0 Bft)
02.02.2014 20:52 3,4 C 0,6 C 86 % 1016,1 hPa 0,0 l/m 0 min 0 min 0,0 UV-I 0 W/m 0,0 km/h (0 Bft)
02.02.2014 20:54 3,4 C 0,6 C 86 % 1016,3 hPa 0,0 l/m 0 min 0 min 0,0 UV-I 0 W/m 0,0 km/h (0 Bft)
02.02.2014 20:56 3,4 C 0,6 C 86 % 1016,3 hPa 0,0 l/m 0 min 0 min 0,0 UV-I 0 W/m 0,0 km/h (0 Bft)
02.02.2014 20:58 3,4 C 0,6 C 86 % 1016,3 hPa 0,0 l/m 0 min 0 min 0,0 UV-I 0 W/m 0,0 km/h (0 Bft)
02.02.2014 21:00 3,4 C 1,1 C 86 % 1016,3 hPa 0,0 l/m 0 min 0 min 0,0 UV-I 0 W/m 0,0 km/h (0 Bft)
02.02.2014 21:02 3,4 C 1,1 C 86 % 1016,3 hPa 0,0 l/m 0 min 0 min 0,0 UV-I 0 W/m 0,0 km/h (0 Bft)
02.02.2014 21:04 3,4 C 1,1 C 86 % 1016,3 hPa 0,0 l/m 0 min 0 min 0,0 UV-I 0 W/m 0,0 km/h (0 Bft)
02.02.2014 21:06 3,4 C 1,1 C 86 % 1016,4 hPa 0,0 l/m 0 min 0 min 0,0 UV-I 0 W/m 0,0 km/h (0 Bft)
02.02.2014 21:08 3,4 C 1,1 C 86 % 1016,4 hPa 0,0 l/m 0 min 0 min 0,0 UV-I 0 W/m 0,0 km/h (0 Bft)
02.02.2014 21:10 3,4 C 1,1 C 86 % 1016,4 hPa 0,0 l/m 0 min 0 min 0,0 UV-I 0 W/m 0,0 km/h (0 Bft)
02.02.2014 21:12 3,3 C 1,1 C 86 % 1016,4 hPa 0,0 l/m 0 min 0 min 0,0 UV-I 0 W/m 0,0 km/h (0 Bft)
02.02.2014 21:14 3,3 C 0,6 C 86 % 1016,4 hPa 0,0 l/m 0 min 0 min 0,0 UV-I 0 W/m 0,0 km/h (0 Bft)
02.02.2014 21:16 3,3 C 0,6 C 86 % 1016,4 hPa 0,0 l/m 0 min 0 min 0,0 UV-I 0 W/m 0,0 km/h (0 Bft)
02.02.2014 21:18 3,3 C 0,6 C 86 % 1016,4 hPa 0,0 l/m 0 min 0 min 0,0 UV-I 0 W/m 0,0 km/h (0 Bft)
02.02.2014 21:20 3,2 C 0,6 C 86 % 1016,4 hPa 0,0 l/m 0 min 0 min 0,0 UV-I 0 W/m 0,0 km/h (0 Bft)
02.02.2014 21:22 3,2 C 0,6 C 86 % 1016,4 hPa 0,0 l/m 0 min 0 min 0,0 UV-I 0 W/m 0,0 km/h (0 Bft)
02.02.2014 21:24 3,2 C 0,6 C 87 % 1016,4 hPa 0,0 l/m 0 min 0 min 0,0 UV-I 0 W/m 0,0 km/h (0 Bft)
02.02.2014 21:26 3,1 C 0,6 C 87 % 1016,4 hPa 0,0 l/m 0 min 0 min 0,0 UV-I 0 W/m 0,0 km/h (0 Bft)
02.02.2014 21:28 3,0 C 0,6 C 87 % 1016,4 hPa 0,0 l/m 0 min 0 min 0,0 UV-I 0 W/m 0,0 km/h (0 Bft)
02.02.2014 21:30 3,0 C 0,6 C 87 % 1016,4 hPa 0,0 l/m 0 min 0 min 0,0 UV-I 0 W/m 0,0 km/h (0 Bft)
02.02.2014 21:32 2,9 C 0,6 C 87 % 1016,4 hPa 0,0 l/m 0 min 0 min 0,0 UV-I 0 W/m 0,0 km/h (0 Bft)
02.02.2014 21:34 2,9 C 0,6 C 87 % 1016,4 hPa 0,0 l/m 0 min 0 min 0,0 UV-I 0 W/m 0,0 km/h (0 Bft)
02.02.2014 21:36 2,9 C 0,0 C 87 % 1016,4 hPa 0,0 l/m 0 min 0 min 0,0 UV-I 0 W/m 0,0 km/h (0 Bft)
02.02.2014 21:38 2,9 C 0,0 C 87 % 1016,4 hPa 0,0 l/m 0 min 0 min 0,0 UV-I 0 W/m 0,0 km/h (0 Bft)
02.02.2014 21:40 2,8 C 0,0 C 87 % 1016,4 hPa 0,0 l/m 0 min 0 min 0,0 UV-I 0 W/m 0,0 km/h (0 Bft)
02.02.2014 21:42 2,8 C 0,0 C 88 % 1016,5 hPa 0,0 l/m 0 min 0 min 0,0 UV-I 0 W/m 0,0 km/h (0 Bft)
02.02.2014 21:44 2,8 C 0,0 C 88 % 1016,5 hPa 0,0 l/m 0 min 0 min 0,0 UV-I 0 W/m 0,0 km/h (0 Bft)
02.02.2014 21:46 2,8 C 0,0 C 88 % 1016,5 hPa 0,0 l/m 0 min 0 min 0,0 UV-I 0 W/m 0,0 km/h (0 Bft)
02.02.2014 21:48 2,8 C 0,0 C 88 % 1016,5 hPa 0,0 l/m 0 min 0 min 0,0 UV-I 0 W/m 0,0 km/h (0 Bft)
02.02.2014 21:50 2,7 C 0,0 C 88 % 1016,5 hPa 0,0 l/m 0 min 0 min 0,0 UV-I 0 W/m 0,0 km/h (0 Bft)
02.02.2014 21:52 2,7 C 0,0 C 88 % 1016,5 hPa 0,0 l/m 0 min 0 min 0,0 UV-I 0 W/m 0,0 km/h (0 Bft)
02.02.2014 21:54 2,7 C 0,0 C 88 % 1016,6 hPa 0,0 l/m 0 min 0 min 0,0 UV-I 0 W/m 0,0 km/h (0 Bft)
02.02.2014 21:56 2,6 C 0,0 C 88 % 1016,6 hPa 0,0 l/m 0 min 0 min 0,0 UV-I 0 W/m 0,0 km/h (0 Bft)
02.02.2014 21:58 2,6 C 0,0 C 88 % 1016,7 hPa 0,0 l/m 0 min 0 min 0,0 UV-I 0 W/m 0,0 km/h (0 Bft)
02.02.2014 22:00 2,6 C 0,0 C 88 % 1016,7 hPa 0,0 l/m 0 min 0 min 0,0 UV-I 0 W/m 0,0 km/h (0 Bft)
02.02.2014 22:02 2,6 C 0,0 C 88 % 1016,7 hPa 0,0 l/m 0 min 0 min 0,0 UV-I 0 W/m 0,0 km/h (0 Bft)
02.02.2014 22:04 2,5 C 0,0 C 88 % 1016,7 hPa 0,0 l/m 0 min 0 min 0,0 UV-I 0 W/m 0,0 km/h (0 Bft)
02.02.2014 22:06 2,4 C 0,0 C 88 % 1016,8 hPa 0,0 l/m 0 min 0 min 0,0 UV-I 0 W/m 0,0 km/h (0 Bft)
02.02.2014 22:08 2,4 C -0,6 C 88 % 1016,8 hPa 0,0 l/m 0 min 0 min 0,0 UV-I 0 W/m 0,0 km/h (0 Bft)
02.02.2014 22:10 2,4 C -0,6 C 88 % 1016,8 hPa 0,0 l/m 0 min 0 min 0,0 UV-I 0 W/m 0,0 km/h (0 Bft)
02.02.2014 22:12 2,3 C -0,6 C 88 % 1016,9 hPa 0,0 l/m 0 min 0 min 0,0 UV-I 0 W/m 0,0 km/h (0 Bft)
02.02.2014 22:14 2,3 C -0,6 C 89 % 1016,9 hPa 0,0 l/m 0 min 0 min 0,0 UV-I 0 W/m 0,0 km/h (0 Bft)
02.02.2014 22:16 2,2 C -0,6 C 89 % 1016,8 hPa 0,0 l/m 0 min 0 min 0,0 UV-I 0 W/m 0,0 km/h (0 Bft)
02.02.2014 22:18 2,2 C -0,6 C 89 % 1016,9 hPa 0,0 l/m 0 min 0 min 0,0 UV-I 0 W/m 0,0 km/h (0 Bft)
02.02.2014 22:20 2,2 C -0,6 C 89 % 1016,9 hPa 0,0 l/m 0 min 0 min 0,0 UV-I 0 W/m 0,0 km/h (0 Bft)
02.02.2014 22:22 2,1 C -0,6 C 89 % 1016,9 hPa 0,0 l/m 0 min 0 min 0,0 UV-I 0 W/m 0,0 km/h (0 Bft)
02.02.2014 22:24 2,0 C -0,6 C 89 % 1016,9 hPa 0,0 l/m 0 min 0 min 0,0 UV-I 0 W/m 0,0 km/h (0 Bft)
02.02.2014 22:26 1,9 C -0,6 C 89 % 1016,9 hPa 0,0 l/m 0 min 0 min 0,0 UV-I 0 W/m 0,0 km/h (0 Bft)
02.02.2014 22:28 1,9 C -0,6 C 89 % 1017,0 hPa 0,0 l/m 0 min 0 min 0,0 UV-I 0 W/m 0,0 km/h (0 Bft)
02.02.2014 22:30 1,9 C -0,6 C 89 % 1017,0 hPa 0,0 l/m 0 min 0 min 0,0 UV-I 0 W/m 0,0 km/h (0 Bft)
02.02.2014 22:32 1,8 C -0,6 C 89 % 1017,0 hPa 0,0 l/m 0 min 0 min 0,0 UV-I 0 W/m 0,0 km/h (0 Bft)
02.02.2014 22:34 1,8 C -0,6 C 90 % 1017,0 hPa 0,0 l/m 0 min 0 min 0,0 UV-I 0 W/m 0,0 km/h (0 Bft)
02.02.2014 22:36 1,8 C -0,6 C 90 % 1017,0 hPa 0,0 l/m 0 min 0 min 0,0 UV-I 0 W/m 0,0 km/h (0 Bft)
02.02.2014 22:38 1,7 C -0,6 C 90 % 1017,0 hPa 0,0 l/m 0 min 0 min 0,0 UV-I 0 W/m 0,0 km/h (0 Bft)
02.02.2014 22:40 1,7 C -0,6 C 90 % 1017,0 hPa 0,0 l/m 0 min 0 min 0,0 UV-I 0 W/m 0,0 km/h (0 Bft)
02.02.2014 22:42 1,7 C -0,6 C 90 % 1017,0 hPa 0,0 l/m 0 min 0 min 0,0 UV-I 0 W/m 0,0 km/h (0 Bft)
02.02.2014 22:44 1,7 C -0,6 C 90 % 1017,0 hPa 0,0 l/m 0 min 0 min 0,0 UV-I 0 W/m 0,0 km/h (0 Bft)
02.02.2014 22:46 1,7 C -0,6 C 91 % 1017,0 hPa 0,0 l/m 0 min 0 min 0,0 UV-I 0 W/m 0,0 km/h (0 Bft)
02.02.2014 22:48 1,7 C -0,6 C 91 % 1017,0 hPa 0,0 l/m 0 min 0 min 0,0 UV-I 0 W/m 0,0 km/h (0 Bft)
02.02.2014 22:50 1,7 C -0,6 C 90 % 1017,0 hPa 0,0 l/m 0 min 0 min 0,0 UV-I 0 W/m 0,0 km/h (0 Bft)
02.02.2014 22:52 1,7 C -0,6 C 91 % 1017,0 hPa 0,0 l/m 0 min 0 min 0,0 UV-I 0 W/m 0,0 km/h (0 Bft)
02.02.2014 22:54 1,7 C -0,6 C 91 % 1017,0 hPa 0,0 l/m 0 min 0 min 0,0 UV-I 0 W/m 0,0 km/h (0 Bft)
02.02.2014 22:56 1,7 C -0,6 C 91 % 1016,9 hPa 0,0 l/m 0 min 0 min 0,0 UV-I 0 W/m 7,7 km/h (2 Bft)
02.02.2014 22:58 1,7 C -0,6 C 91 % 1016,9 hPa 0,0 l/m 0 min 0 min 0,0 UV-I 0 W/m 10,3 km/h (2 Bft)
02.02.2014 23:00 1,7 C 0,0 C 91 % 1016,9 hPa 0,0 l/m 0 min 0 min 0,0 UV-I 0 W/m 10,3 km/h (2 Bft)
02.02.2014 23:02 1,7 C 0,0 C 91 % 1016,9 hPa 0,0 l/m 0 min 0 min 0,0 UV-I 0 W/m 10,3 km/h (2 Bft)
02.02.2014 23:04 1,7 C 0,0 C 91 % 1016,9 hPa 0,0 l/m 0 min 0 min 0,0 UV-I 0 W/m 5,1 km/h (1 Bft)
02.02.2014 23:06 1,7 C 0,0 C 91 % 1016,9 hPa 0,0 l/m 0 min 0 min 0,0 UV-I 0 W/m 5,1 km/h (1 Bft)
02.02.2014 23:08 1,6 C 0,0 C 91 % 1016,9 hPa 0,0 l/m 0 min 0 min 0,0 UV-I 0 W/m 7,7 km/h (2 Bft)
02.02.2014 23:10 1,6 C 0,0 C 91 % 1016,9 hPa 0,0 l/m 0 min 0 min 0,0 UV-I 0 W/m 7,7 km/h (2 Bft)
02.02.2014 23:12 1,6 C 0,0 C 91 % 1016,9 hPa 0,0 l/m 0 min 0 min 0,0 UV-I 0 W/m 7,7 km/h (2 Bft)
02.02.2014 23:14 1,6 C 0,0 C 91 % 1016,9 hPa 0,0 l/m 0 min 0 min 0,0 UV-I 0 W/m 10,3 km/h (2 Bft)
02.02.2014 23:16 1,6 C 0,0 C 91 % 1016,9 hPa 0,0 l/m 0 min 0 min 0,0 UV-I 0 W/m 7,7 km/h (2 Bft)
02.02.2014 23:18 1,6 C 0,0 C 91 % 1016,9 hPa 0,0 l/m 0 min 0 min 0,0 UV-I 0 W/m 10,3 km/h (2 Bft)
02.02.2014 23:20 1,6 C -0,6 C 91 % 1016,9 hPa 0,0 l/m 0 min 0 min 0,0 UV-I 0 W/m 0,0 km/h (0 Bft)
02.02.2014 23:22 1,6 C -0,6 C 91 % 1016,9 hPa 0,0 l/m 0 min 0 min 0,0 UV-I 0 W/m 7,7 km/h (2 Bft)
02.02.2014 23:24 1,6 C -0,6 C 91 % 1016,9 hPa 0,0 l/m 0 min 0 min 0,0 UV-I 0 W/m 5,1 km/h (1 Bft)
02.02.2014 23:26 1,6 C -0,6 C 91 % 1016,9 hPa 0,0 l/m 0 min 0 min 0,0 UV-I 0 W/m 2,6 km/h (1 Bft)
02.02.2014 23:28 1,5 C -0,6 C 91 % 1016,9 hPa 0,0 l/m 0 min 0 min 0,0 UV-I 0 W/m 0,0 km/h (0 Bft)
02.02.2014 23:30 1,5 C -0,6 C 91 % 1016,8 hPa 0,0 l/m 0 min 0 min 0,0 UV-I 0 W/m 0,0 km/h (0 Bft)
02.02.2014 23:32 1,5 C -0,6 C 91 % 1016,9 hPa 0,0 l/m 0 min 0 min 0,0 UV-I 0 W/m 2,6 km/h (1 Bft)
02.02.2014 23:34 1,5 C -0,6 C 91 % 1016,9 hPa 0,0 l/m 0 min 0 min 0,0 UV-I 0 W/m 7,7 km/h (2 Bft)
02.02.2014 23:36 1,5 C -0,6 C 91 % 1016,9 hPa 0,0 l/m 0 min 0 min 0,0 UV-I 0 W/m 5,1 km/h (1 Bft)
02.02.2014 23:38 1,5 C -0,6 C 92 % 1016,8 hPa 0,0 l/m 0 min 0 min 0,0 UV-I 0 W/m 7,7 km/h (2 Bft)
02.02.2014 23:40 1,5 C -0,6 C 92 % 1016,8 hPa 0,0 l/m 0 min 0 min 0,0 UV-I 0 W/m 5,1 km/h (1 Bft)
02.02.2014 23:42 1,5 C -0,6 C 92 % 1016,9 hPa 0,0 l/m 0 min 0 min 0,0 UV-I 0 W/m 7,7 km/h (2 Bft)
02.02.2014 23:44 1,5 C -0,6 C 92 % 1016,9 hPa 0,0 l/m 0 min 0 min 0,0 UV-I 0 W/m 2,6 km/h (1 Bft)
02.02.2014 23:46 1,5 C 0,0 C 92 % 1016,9 hPa 0,0 l/m 0 min 0 min 0,0 UV-I 0 W/m 7,7 km/h (2 Bft)
02.02.2014 23:48 1,5 C 0,0 C 92 % 1016,9 hPa 0,0 l/m 0 min 0 min 0,0 UV-I 0 W/m 5,1 km/h (1 Bft)
02.02.2014 23:50 1,5 C -0,6 C 92 % 1016,9 hPa 0,0 l/m 0 min 0 min 0,0 UV-I 0 W/m 0,0 km/h (0 Bft)
02.02.2014 23:52 1,4 C -0,6 C 92 % 1016,8 hPa 0,0 l/m 0 min 0 min 0,0 UV-I 0 W/m 5,1 km/h (1 Bft)
02.02.2014 23:54 1,4 C -0,6 C 92 % 1016,8 hPa 0,0 l/m 0 min 0 min 0,0 UV-I 0 W/m 7,7 km/h (2 Bft)
02.02.2014 23:56 1,4 C -0,6 C 92 % 1016,9 hPa 0,0 l/m 0 min 0 min 0,0 UV-I 0 W/m 7,7 km/h (2 Bft)
02.02.2014 23:58 1,4 C -0,6 C 92 % 1016,8 hPa 0,0 l/m 0 min 0 min 0,0 UV-I 0 W/m 7,7 km/h (2 Bft)
_ Min-Zeit 08:38 08:00 15:24 00:00 - - - - - 00:06
Minimum _ 1,3 C -0,6 C 62 % 1005,4 hPa - - - - - 0,0 km/h (0 Bft)
_ Max-Zeit 14:34 13:10 09:10 22:28 00:00 09:32 00:00 00:00 12:58 14:44
Maximum _ 10,0 C 7,8 C 94 % 1017,0 hPa 0,0 l/m 2 min 0 min 0,0 UV-I 339 W/m 30,9 km/h
S-SW (5 Bft)
Durchschnitt _ 5,0 C 2,8 C 82 % 1011,1 hPa #0,0 l/m #6:36 h #0 min. 0,0 UV-I 190 W/m 6,1 km/h (2 Bft)
© 2014 W. Hausmann